Time,TemperatureF,DewpointF,PressureIn,WindDirection,WindDirectionDegrees,WindSpeedMPH,WindSpeedGustMPH,Humidity,HourlyPrecipIn,Conditions,Clouds,dailyrainin,SoftwareType,DateUTC
2013-06-01 00:00:00,41.5,11.7,0.00,ENE,74,4.0,4.9,29,0.00,,---,0.00,VWS V14.00,2013-06-01 06:00:00,
2013-06-01 00:02:00,41.5,11.7,0.00,SE,134,4.0,4.0,29,0.00,,---,0.00,VWS V14.00,2013-06-01 06:02:00,
2013-06-01 00:03:00,41.5,11.7,0.00,ESE,105,0.0,4.0,29,0.00,,---,0.00,VWS V14.00,2013-06-01 06:03:00,
2013-06-01 00:04:00,41.5,11.7,0.00,ENE,66,3.1,4.0,29,0.00,,---,0.00,VWS V14.00,2013-06-01 06:04:00,
2013-06-01 00:05:00,41.5,11.7,0.00,SE,144,3.6,3.6,29,0.00,,---,0.00,VWS V14.00,2013-06-01 06:05:00,
2013-06-01 00:08:00,41.4,11.5,0.00,South,172,0.0,2.7,29,0.00,,---,0.00,VWS V14.00,2013-06-01 06:08:00,
2013-06-01 00:09:00,41.4,11.5,0.00,South,170,0.0,0.0,29,0.00,,---,0.00,VWS V14.00,2013-06-01 06:09:00,
2013-06-01 00:10:00,41.4,11.5,0.00,ESE,106,3.6,3.6,29,0.00,,---,0.00,VWS V14.00,2013-06-01 06:10:00,
2013-06-01 00:12:00,41.4,11.5,0.00,South,171,0.0,0.0,29,0.00,,---,0.00,VWS V14.00,2013-06-01 06:12:00,
2013-06-01 00:13:00,41.4,11.5,0.00,East,93,5.4,7.2,29,0.00,,---,0.00,VWS V14.00,2013-06-01 06:13:00,
2013-06-01 00:14:00,41.4,11.5,0.00,SE,125,4.9,7.2,29,0.00,,---,0.00,VWS V14.00,2013-06-01 06:14:00,
2013-06-01 00:16:00,41.4,11.5,0.00,SSE,158,0.0,0.0,29,0.00,,---,0.00,VWS V14.00,2013-06-01 06:16:00,
2013-06-01 00:18:00,41.2,11.4,0.00,ENE,61,4.0,4.0,29,0.00,,---,0.00,VWS V14.00,2013-06-01 06:18:00,
2013-06-01 00:19:00,41.2,11.4,0.00,East,89,0.0,4.0,29,0.00,,---,0.00,VWS V14.00,2013-06-01 06:19:00,
2013-06-01 00:22:00,41.2,11.4,0.00,East,90,0.0,0.0,29,0.00,,---,0.00,VWS V14.00,2013-06-01 06:22:00,
2013-06-01 00:23:00,41.2,11.4,0.00,ESE,120,3.6,3.6,29,0.00,,---,0.00,VWS V14.00,2013-06-01 06:23:00,
2013-06-01 00:24:00,41.2,11.4,0.00,SSW,199,0.0,0.0,29,0.00,,---,0.00,VWS V14.00,2013-06-01 06:24:00,
2013-06-01 00:27:00,41.2,11.4,0.00,SSE,156,0.0,0.0,29,0.00,,---,0.00,VWS V14.00,2013-06-01 06:27:00,
2013-06-01 00:28:00,41.0,11.2,0.00,South,175,0.0,0.0,29,0.00,,---,0.00,VWS V14.00,2013-06-01 06:28:00,
2013-06-01 00:29:00,41.0,11.2,0.00,SW,218,0.0,0.0,29,0.00,,---,0.00,VWS V14.00,2013-06-01 06:29:00,
2013-06-01 00:32:00,40.8,11.0,0.00,SW,231,0.0,0.0,29,0.00,,---,0.00,VWS V14.00,2013-06-01 06:32:00,
2013-06-01 00:33:00,40.8,11.0,0.00,SW,236,0.0,0.0,29,0.00,,---,0.00,VWS V14.00,2013-06-01 06:33:00,
2013-06-01 00:34:00,40.6,10.9,0.00,SW,236,0.0,0.0,29,0.00,,---,0.00,VWS V14.00,2013-06-01 06:34:00,
2013-06-01 00:37:00,40.6,10.9,0.00,SE,135,3.6,3.6,29,0.00,,---,0.00,VWS V14.00,2013-06-01 06:37:00,
2013-06-01 00:38:00,40.6,10.9,0.00,SE,143,3.1,3.1,29,0.00,,---,0.00,VWS V14.00,2013-06-01 06:38:00,
2013-06-01 00:39:00,40.6,10.9,0.00,SE,143,0.0,0.0,29,0.00,,---,0.00,VWS V14.00,2013-06-01 06:39:00,
2013-06-01 00:42:00,40.5,10.7,0.00,East,85,3.6,3.6,29,0.00,,---,0.00,VWS V14.00,2013-06-01 06:42:00,
2013-06-01 00:43:00,40.5,10.7,0.00,East,85,2.2,4.0,29,0.00,,---,0.00,VWS V14.00,2013-06-01 06:43:00,
2013-06-01 00:44:00,40.5,10.7,0.00,East,97,2.7,3.1,29,0.00,,---,0.00,VWS V14.00,2013-06-01 06:44:00,
2013-06-01 00:47:00,40.5,10.7,0.00,ESE,112,0.0,4.9,29,0.00,,---,0.00,VWS V14.00,2013-06-01 06:47:00,
2013-06-01 00:48:00,40.5,10.7,0.00,South,189,0.0,0.0,29,0.00,,---,0.00,VWS V14.00,2013-06-01 06:48:00,
2013-06-01 00:49:00,40.5,10.7,0.00,SSW,194,0.0,0.0,29,0.00,,---,0.00,VWS V14.00,2013-06-01 06:49:00,
2013-06-01 00:53:00,40.3,10.6,0.00,ESE,112,0.0,4.0,29,0.00,,---,0.00,VWS V14.00,2013-06-01 06:53:00,
2013-06-01 00:54:00,40.3,10.6,0.00,ESE,117,0.0,0.0,29,0.00,,---,0.00,VWS V14.00,2013-06-01 06:54:00,
2013-06-01 00:55:00,40.3,10.6,0.00,ENE,67,8.1,8.1,29,0.00,,---,0.00,VWS V14.00,2013-06-01 06:55:00,
2013-06-01 00:58:00,40.3,10.6,0.00,WNW,286,0.0,0.0,29,0.00,,---,0.00,VWS V14.00,2013-06-01 06:58:00,
2013-06-01 00:59:00,40.3,10.6,0.00,WNW,282,0.0,0.0,29,0.00,,---,0.00,VWS V14.00,2013-06-01 06:59:00,
2013-06-01 01:00:00,40.3,10.6,0.00,ESE,111,5.8,5.8,29,0.00,,---,0.00,VWS V14.00,2013-06-01 07:00:00,
2013-06-01 01:03:00,40.3,10.6,0.00,ESE,102,0.0,0.0,29,0.00,,---,0.00,VWS V14.00,2013-06-01 07:03:00,
2013-06-01 01:04:00,40.3,10.6,0.00,ESE,102,0.0,0.0,29,0.00,,---,0.00,VWS V14.00,2013-06-01 07:04:00,
2013-06-01 01:05:00,40.3,10.6,0.00,ESE,106,4.0,4.0,29,0.00,,---,0.00,VWS V14.00,2013-06-01 07:05:00,
2013-06-01 01:08:00,40.1,10.4,0.00,SE,128,0.0,2.7,29,0.00,,---,0.00,VWS V14.00,2013-06-01 07:08:00,
2013-06-01 01:09:00,40.1,10.4,0.00,SE,128,0.0,2.7,29,0.00,,---,0.00,VWS V14.00,2013-06-01 07:09:00,
2013-06-01 01:10:00,40.1,10.4,0.00,WSW,238,0.0,0.0,29,0.00,,---,0.00,VWS V14.00,2013-06-01 07:10:00,
2013-06-01 01:13:00,39.9,10.2,0.00,SW,236,0.0,0.0,29,0.00,,---,0.00,VWS V14.00,2013-06-01 07:13:00,
2013-06-01 01:15:00,39.9,10.2,0.00,WSW,237,0.0,0.0,29,0.00,,---,0.00,VWS V14.00,2013-06-01 07:15:00,
2013-06-01 01:19:00,39.7,10.1,0.00,SW,226,0.0,0.0,29,0.00,,---,0.00,VWS V14.00,2013-06-01 07:19:00,
2013-06-01 01:20:00,39.7,10.1,0.00,SW,226,0.0,0.0,29,0.00,,---,0.00,VWS V14.00,2013-06-01 07:20:00,
2013-06-01 01:21:00,39.6,9.9,0.00,SW,226,0.0,0.0,29,0.00,,---,0.00,VWS V14.00,2013-06-01 07:21:00,
2013-06-01 01:24:00,39.4,9.8,0.00,SW,223,0.0,0.0,29,0.00,,---,0.00,VWS V14.00,2013-06-01 07:24:00,
2013-06-01 01:25:00,39.2,9.6,0.00,SW,224,2.7,2.7,29,0.00,,---,0.00,VWS V14.00,2013-06-01 07:25:00,
2013-06-01 01:26:00,39.2,9.6,0.00,SW,234,3.6,3.6,29,0.00,,---,0.00,VWS V14.00,2013-06-01 07:26:00,
2013-06-01 01:29:00,39.0,10.2,0.00,SW,217,0.0,0.0,30,0.00,,---,0.00,VWS V14.00,2013-06-01 07:29:00,
2013-06-01 01:30:00,38.8,10.1,0.00,WSW,238,2.2,2.7,30,0.00,,---,0.00,VWS V14.00,2013-06-01 07:30:00,
2013-06-01 01:31:00,38.8,10.1,0.00,SSW,193,0.0,2.2,30,0.00,,---,0.00,VWS V14.00,2013-06-01 07:31:00,
2013-06-01 01:34:00,38.8,10.1,0.00,SW,219,2.2,2.2,30,0.00,,---,0.00,VWS V14.00,2013-06-01 07:34:00,
2013-06-01 01:35:00,38.8,10.1,0.00,SW,225,0.0,2.2,30,0.00,,---,0.00,VWS V14.00,2013-06-01 07:35:00,
2013-06-01 01:36:00,38.8,10.1,0.00,West,259,0.0,0.0,30,0.00,,---,0.00,VWS V14.00,2013-06-01 07:36:00,
2013-06-01 01:39:00,38.7,9.9,0.00,South,183,0.0,0.0,30,0.00,,---,0.00,VWS V14.00,2013-06-01 07:39:00,
2013-06-01 01:40:00,38.7,9.9,0.00,South,191,0.0,0.0,30,0.00,,---,0.00,VWS V14.00,2013-06-01 07:40:00,
2013-06-01 01:41:00,38.7,9.9,0.00,South,191,0.0,0.0,30,0.00,,---,0.00,VWS V14.00,2013-06-01 07:41:00,
2013-06-01 01:44:00,38.5,9.8,0.00,South,191,0.0,0.0,30,0.00,,---,0.00,VWS V14.00,2013-06-01 07:44:00,
2013-06-01 01:45:00,38.5,9.8,0.00,South,191,0.0,0.0,30,0.00,,---,0.00,VWS V14.00,2013-06-01 07:45:00,
2013-06-01 01:46:00,38.5,9.8,0.00,South,188,0.0,0.0,30,0.00,,---,0.00,VWS V14.00,2013-06-01 07:46:00,
2013-06-01 01:49:00,38.5,9.8,0.00,South,191,0.0,0.0,30,0.00,,---,0.00,VWS V14.00,2013-06-01 07:49:00,
2013-06-01 01:50:00,38.5,9.8,0.00,South,191,0.0,0.0,30,0.00,,---,0.00,VWS V14.00,2013-06-01 07:50:00,
2013-06-01 01:51:00,38.5,9.8,0.00,South,189,0.0,0.0,30,0.00,,---,0.00,VWS V14.00,2013-06-01 07:51:00,
2013-06-01 01:54:00,38.3,9.6,0.00,West,271,0.0,0.0,30,0.00,,---,0.00,VWS V14.00,2013-06-01 07:54:00,
2013-06-01 01:55:00,38.3,9.6,0.00,West,266,0.0,0.0,30,0.00,,---,0.00,VWS V14.00,2013-06-01 07:55:00,
2013-06-01 01:56:00,38.1,9.4,0.00,West,270,0.0,0.0,30,0.00,,---,0.00,VWS V14.00,2013-06-01 07:56:00,
2013-06-01 01:59:00,38.1,9.4,0.00,West,266,0.0,0.0,30,0.00,,---,0.00,VWS V14.00,2013-06-01 07:59:00,
2013-06-01 02:00:00,38.1,9.4,0.00,West,264,0.0,0.0,30,0.00,,---,0.00,VWS V14.00,2013-06-01 08:00:00,
2013-06-01 02:01:00,38.1,9.4,0.00,West,261,0.0,0.0,30,0.00,,---,0.00,VWS V14.00,2013-06-01 08:01:00,
2013-06-01 02:04:00,37.9,9.3,0.00,West,260,0.0,0.0,30,0.00,,---,0.00,VWS V14.00,2013-06-01 08:04:00,
2013-06-01 02:05:00,37.9,9.3,0.00,West,260,0.0,0.0,30,0.00,,---,0.00,VWS V14.00,2013-06-01 08:05:00,
2013-06-01 02:06:00,37.9,9.3,0.00,West,260,0.0,0.0,30,0.00,,---,0.00,VWS V14.00,2013-06-01 08:06:00,
2013-06-01 02:10:00,37.8,9.1,0.00,West,261,0.0,0.0,30,0.00,,---,0.00,VWS V14.00,2013-06-01 08:10:00,
2013-06-01 02:11:00,37.6,9.0,0.00,WSW,255,0.0,0.0,30,0.00,,---,0.00,VWS V14.00,2013-06-01 08:11:00,
2013-06-01 02:15:00,37.4,8.8,0.00,SW,225,0.0,0.0,30,0.00,,---,0.00,VWS V14.00,2013-06-01 08:15:00,
2013-06-01 02:16:00,37.4,8.8,0.00,SW,225,0.0,0.0,30,0.00,,---,0.00,VWS V14.00,2013-06-01 08:16:00,
2013-06-01 02:17:00,37.4,8.8,0.00,SW,225,0.0,0.0,30,0.00,,---,0.00,VWS V14.00,2013-06-01 08:17:00,
2013-06-01 02:20:00,37.4,8.8,0.00,SW,226,0.0,0.0,30,0.00,,---,0.00,VWS V14.00,2013-06-01 08:20:00,
2013-06-01 02:21:00,37.4,8.8,0.00,SW,226,0.0,0.0,30,0.00,,---,0.00,VWS V14.00,2013-06-01 08:21:00,
2013-06-01 02:22:00,37.4,8.8,0.00,SW,226,0.0,0.0,30,0.00,,---,0.00,VWS V14.00,2013-06-01 08:22:00,
2013-06-01 02:25:00,37.2,8.6,0.00,West,280,3.1,3.1,30,0.00,,---,0.00,VWS V14.00,2013-06-01 08:25:00,
2013-06-01 02:26:00,37.2,8.6,0.00,West,281,2.7,3.1,30,0.00,,---,0.00,VWS V14.00,2013-06-01 08:26:00,
2013-06-01 02:27:00,37.0,8.5,0.00,WNW,282,3.1,3.1,30,0.00,,---,0.00,VWS V14.00,2013-06-01 08:27:00,
2013-06-01 02:30:00,37.0,9.2,0.00,West,279,2.7,2.7,31,0.00,,---,0.00,VWS V14.00,2013-06-01 08:30:00,
2013-06-01 02:31:00,37.0,9.2,0.00,WNW,282,0.0,2.7,31,0.00,,---,0.00,VWS V14.00,2013-06-01 08:31:00,
2013-06-01 02:32:00,37.0,9.2,0.00,WNW,282,0.0,0.0,31,0.00,,---,0.00,VWS V14.00,2013-06-01 08:32:00,
2013-06-01 02:35:00,37.0,9.2,0.00,WNW,282,0.0,0.0,31,0.00,,---,0.00,VWS V14.00,2013-06-01 08:35:00,
2013-06-01 02:36:00,37.0,9.2,0.00,WNW,282,0.0,0.0,31,0.00,,---,0.00,VWS V14.00,2013-06-01 08:36:00,
2013-06-01 02:37:00,36.9,9.1,0.00,West,273,0.0,0.0,31,0.00,,---,0.00,VWS V14.00,2013-06-01 08:37:00,
2013-06-01 02:40:00,36.9,9.1,0.00,WNW,282,0.0,0.0,31,0.00,,---,0.00,VWS V14.00,2013-06-01 08:40:00,
2013-06-01 02:41:00,36.9,9.1,0.00,WNW,282,0.0,0.0,31,0.00,,---,0.00,VWS V14.00,2013-06-01 08:41:00,
2013-06-01 02:43:00,36.9,9.1,0.00,WNW,282,0.0,0.0,31,0.00,,---,0.00,VWS V14.00,2013-06-01 08:43:00,
2013-06-01 02:45:00,36.7,8.9,0.00,West,277,0.0,0.0,31,0.00,,---,0.00,VWS V14.00,2013-06-01 08:45:00,
2013-06-01 02:46:00,36.7,8.9,0.00,WSW,256,0.0,0.0,31,0.00,,---,0.00,VWS V14.00,2013-06-01 08:46:00,
2013-06-01 02:48:00,36.7,8.9,0.00,West,262,0.0,0.0,31,0.00,,---,0.00,VWS V14.00,2013-06-01 08:48:00,
2013-06-01 02:51:00,36.7,8.9,0.00,West,262,0.0,0.0,31,0.00,,---,0.00,VWS V14.00,2013-06-01 08:51:00,
2013-06-01 02:52:00,36.7,8.9,0.00,West,262,0.0,0.0,31,0.00,,---,0.00,VWS V14.00,2013-06-01 08:52:00,
2013-06-01 02:53:00,36.5,8.8,0.00,West,262,0.0,0.0,31,0.00,,---,0.00,VWS V14.00,2013-06-01 08:53:00,
2013-06-01 02:54:00,36.5,8.8,0.00,West,261,0.0,0.0,31,0.00,,---,0.00,VWS V14.00,2013-06-01 08:54:00,
2013-06-01 02:56:00,36.5,8.8,0.00,WSW,252,0.0,0.0,31,0.00,,---,0.00,VWS V14.00,2013-06-01 08:56:00,
2013-06-01 02:57:00,36.3,8.6,0.00,West,259,0.0,0.0,31,0.00,,---,0.00,VWS V14.00,2013-06-01 08:57:00,
2013-06-01 02:58:00,36.3,8.6,0.00,West,259,0.0,0.0,31,0.00,,---,0.00,VWS V14.00,2013-06-01 08:58:00,
2013-06-01 02:59:00,36.3,8.6,0.00,West,259,0.0,0.0,31,0.00,,---,0.00,VWS V14.00,2013-06-01 08:59:00,
2013-06-01 03:01:00,36.3,8.6,0.00,West,259,0.0,0.0,31,0.00,,---,0.00,VWS V14.00,2013-06-01 09:01:00,
2013-06-01 03:02:00,36.3,8.6,0.00,WSW,258,0.0,0.0,31,0.00,,---,0.00,VWS V14.00,2013-06-01 09:02:00,
2013-06-01 03:03:00,36.3,8.6,0.00,WSW,258,0.0,0.0,31,0.00,,---,0.00,VWS V14.00,2013-06-01 09:03:00,
2013-06-01 03:04:00,36.3,8.6,0.00,West,259,0.0,0.0,31,0.00,,---,0.00,VWS V14.00,2013-06-01 09:04:00,
2013-06-01 03:06:00,36.1,8.4,0.00,WSW,258,0.0,0.0,31,0.00,,---,0.00,VWS V14.00,2013-06-01 09:06:00,
2013-06-01 03:07:00,36.1,8.4,0.00,West,259,0.0,0.0,31,0.00,,---,0.00,VWS V14.00,2013-06-01 09:07:00,
2013-06-01 03:08:00,36.1,8.4,0.00,WSW,258,0.0,0.0,31,0.00,,---,0.00,VWS V14.00,2013-06-01 09:08:00,
2013-06-01 03:09:00,36.1,8.4,0.00,West,259,0.0,0.0,31,0.00,,---,0.00,VWS V14.00,2013-06-01 09:09:00,
2013-06-01 03:11:00,36.1,8.4,0.00,WSW,258,0.0,0.0,31,0.00,,---,0.00,VWS V14.00,2013-06-01 09:11:00,
2013-06-01 03:12:00,36.1,8.4,0.00,WSW,258,0.0,0.0,31,0.00,,---,0.00,VWS V14.00,2013-06-01 09:12:00,
2013-06-01 03:13:00,36.0,8.3,0.00,West,259,0.0,0.0,31,0.00,,---,0.00,VWS V14.00,2013-06-01 09:13:00,
2013-06-01 03:14:00,36.0,8.3,0.00,WSW,258,0.0,0.0,31,0.00,,---,0.00,VWS V14.00,2013-06-01 09:14:00,
2013-06-01 03:16:00,36.0,8.3,0.00,WSW,258,0.0,0.0,31,0.00,,---,0.00,VWS V14.00,2013-06-01 09:16:00,
2013-06-01 03:17:00,36.0,8.3,0.00,West,259,0.0,0.0,31,0.00,,---,0.00,VWS V14.00,2013-06-01 09:17:00,
2013-06-01 03:19:00,36.0,8.3,0.00,East,100,0.0,3.1,31,0.00,,---,0.00,VWS V14.00,2013-06-01 09:19:00,
2013-06-01 03:20:00,36.0,8.3,0.00,East,100,0.0,0.0,31,0.00,,---,0.00,VWS V14.00,2013-06-01 09:20:00,
2013-06-01 03:21:00,36.0,8.3,0.00,WSW,254,0.0,0.0,31,0.00,,---,0.00,VWS V14.00,2013-06-01 09:21:00,
2013-06-01 03:22:00,35.8,8.1,0.00,WSW,256,2.2,2.7,31,0.00,,---,0.00,VWS V14.00,2013-06-01 09:22:00,
2013-06-01 03:24:00,35.8,8.1,0.00,West,264,0.0,0.0,31,0.00,,---,0.00,VWS V14.00,2013-06-01 09:24:00,
2013-06-01 03:25:00,35.8,8.1,0.00,West,265,0.0,0.0,31,0.00,,---,0.00,VWS V14.00,2013-06-01 09:25:00,
2013-06-01 03:26:00,35.8,8.1,0.00,West,265,0.0,0.0,31,0.00,,---,0.00,VWS V14.00,2013-06-01 09:26:00,
2013-06-01 03:27:00,35.8,8.1,0.00,West,265,0.0,0.0,31,0.00,,---,0.00,VWS V14.00,2013-06-01 09:27:00,
2013-06-01 03:28:00,35.8,8.1,0.00,West,265,0.0,0.0,31,0.00,,---,0.00,VWS V14.00,2013-06-01 09:28:00,
2013-06-01 03:29:00,35.8,8.1,0.00,West,265,0.0,0.0,31,0.00,,---,0.00,VWS V14.00,2013-06-01 09:29:00,
2013-06-01 03:30:00,35.8,8.1,0.00,West,265,0.0,0.0,31,0.00,,---,0.00,VWS V14.00,2013-06-01 09:30:00,
2013-06-01 03:31:00,35.8,8.1,0.00,West,265,0.0,0.0,31,0.00,,---,0.00,VWS V14.00,2013-06-01 09:31:00,
2013-06-01 03:32:00,35.6,8.0,0.00,West,265,0.0,0.0,31,0.00,,---,0.00,VWS V14.00,2013-06-01 09:32:00,
2013-06-01 03:33:00,35.6,8.0,0.00,West,265,0.0,0.0,31,0.00,,---,0.00,VWS V14.00,2013-06-01 09:33:00,
2013-06-01 03:34:00,35.6,8.0,0.00,West,265,0.0,0.0,31,0.00,,---,0.00,VWS V14.00,2013-06-01 09:34:00,
2013-06-01 03:35:00,35.6,8.7,0.00,West,265,0.0,0.0,32,0.00,,---,0.00,VWS V14.00,2013-06-01 09:35:00,
2013-06-01 03:36:00,35.6,8.7,0.00,West,265,0.0,0.0,32,0.00,,---,0.00,VWS V14.00,2013-06-01 09:36:00,
2013-06-01 03:37:00,35.6,8.7,0.00,West,265,0.0,0.0,32,0.00,,---,0.00,VWS V14.00,2013-06-01 09:37:00,
2013-06-01 03:38:00,35.6,8.7,0.00,West,265,0.0,0.0,32,0.00,,---,0.00,VWS V14.00,2013-06-01 09:38:00,
2013-06-01 03:39:00,35.6,8.7,0.00,West,263,0.0,0.0,32,0.00,,---,0.00,VWS V14.00,2013-06-01 09:39:00,
2013-06-01 03:40:00,35.6,8.7,0.00,West,263,0.0,0.0,32,0.00,,---,0.00,VWS V14.00,2013-06-01 09:40:00,
2013-06-01 03:41:00,35.4,8.5,0.00,West,263,0.0,0.0,32,0.00,,---,0.00,VWS V14.00,2013-06-01 09:41:00,
2013-06-01 03:42:00,35.4,8.5,0.00,West,265,0.0,0.0,32,0.00,,---,0.00,VWS V14.00,2013-06-01 09:42:00,
2013-06-01 03:43:00,35.4,8.5,0.00,West,264,0.0,0.0,32,0.00,,---,0.00,VWS V14.00,2013-06-01 09:43:00,
2013-06-01 03:44:00,35.4,8.5,0.00,West,263,0.0,0.0,32,0.00,,---,0.00,VWS V14.00,2013-06-01 09:44:00,
2013-06-01 03:45:00,35.4,8.5,0.00,West,263,0.0,0.0,32,0.00,,---,0.00,VWS V14.00,2013-06-01 09:45:00,
2013-06-01 03:47:00,35.4,8.5,0.00,West,265,0.0,0.0,32,0.00,,---,0.00,VWS V14.00,2013-06-01 09:47:00,
2013-06-01 03:48:00,35.4,8.5,0.00,West,264,0.0,0.0,32,0.00,,---,0.00,VWS V14.00,2013-06-01 09:48:00,
2013-06-01 03:49:00,35.4,8.5,0.00,West,265,0.0,0.0,32,0.00,,---,0.00,VWS V14.00,2013-06-01 09:49:00,
2013-06-01 03:51:00,35.4,8.5,0.00,West,265,0.0,0.0,32,0.00,,---,0.00,VWS V14.00,2013-06-01 09:51:00,
2013-06-01 03:52:00,35.2,8.4,0.00,West,265,0.0,0.0,32,0.00,,---,0.00,VWS V14.00,2013-06-01 09:52:00,
2013-06-01 03:53:00,35.2,8.4,0.00,West,265,0.0,0.0,32,0.00,,---,0.00,VWS V14.00,2013-06-01 09:53:00,
2013-06-01 03:54:00,35.2,8.4,0.00,West,265,0.0,0.0,32,0.00,,---,0.00,VWS V14.00,2013-06-01 09:54:00,
2013-06-01 03:56:00,35.2,8.4,0.00,West,265,0.0,0.0,32,0.00,,---,0.00,VWS V14.00,2013-06-01 09:56:00,
2013-06-01 03:57:00,35.2,8.4,0.00,West,265,0.0,0.0,32,0.00,,---,0.00,VWS V14.00,2013-06-01 09:57:00,
2013-06-01 03:58:00,35.2,8.4,0.00,West,265,0.0,0.0,32,0.00,,---,0.00,VWS V14.00,2013-06-01 09:58:00,
2013-06-01 03:59:00,35.2,8.4,0.00,West,265,0.0,0.0,32,0.00,,---,0.00,VWS V14.00,2013-06-01 09:59:00,
2013-06-01 04:01:00,35.1,8.2,0.00,West,265,0.0,0.0,32,0.00,,---,0.00,VWS V14.00,2013-06-01 10:01:00,
2013-06-01 04:02:00,35.1,8.9,0.00,West,265,0.0,0.0,33,0.00,,---,0.00,VWS V14.00,2013-06-01 10:02:00,
2013-06-01 04:03:00,35.1,8.9,0.00,West,263,0.0,0.0,33,0.00,,---,0.00,VWS V14.00,2013-06-01 10:03:00,
2013-06-01 04:04:00,35.1,8.9,0.00,West,265,0.0,0.0,33,0.00,,---,0.00,VWS V14.00,2013-06-01 10:04:00,
2013-06-01 04:06:00,35.1,8.9,0.00,West,260,0.0,0.0,33,0.00,,---,0.00,VWS V14.00,2013-06-01 10:06:00,
2013-06-01 04:07:00,35.1,8.9,0.00,West,265,0.0,0.0,33,0.00,,---,0.00,VWS V14.00,2013-06-01 10:07:00,
2013-06-01 04:08:00,35.1,8.9,0.00,West,265,0.0,0.0,33,0.00,,---,0.00,VWS V14.00,2013-06-01 10:08:00,
2013-06-01 04:09:00,34.9,8.7,0.00,West,265,0.0,0.0,33,0.00,,---,0.00,VWS V14.00,2013-06-01 10:09:00,
2013-06-01 04:11:00,34.9,8.7,0.00,West,265,0.0,0.0,33,0.00,,---,0.00,VWS V14.00,2013-06-01 10:11:00,
2013-06-01 04:13:00,34.9,8.7,0.00,West,265,0.0,0.0,33,0.00,,---,0.00,VWS V14.00,2013-06-01 10:13:00,
2013-06-01 04:14:00,34.9,8.7,0.00,West,265,0.0,0.0,33,0.00,,---,0.00,VWS V14.00,2013-06-01 10:14:00,
2013-06-01 04:16:00,34.9,8.7,0.00,WSW,258,0.0,0.0,33,0.00,,---,0.00,VWS V14.00,2013-06-01 10:16:00,
2013-06-01 04:18:00,34.7,8.6,0.00,West,265,0.0,0.0,33,0.00,,---,0.00,VWS V14.00,2013-06-01 10:18:00,
2013-06-01 04:19:00,34.7,8.6,0.00,West,265,0.0,0.0,33,0.00,,---,0.00,VWS V14.00,2013-06-01 10:19:00,
2013-06-01 04:21:00,34.7,8.6,0.00,West,265,0.0,0.0,33,0.00,,---,0.00,VWS V14.00,2013-06-01 10:21:00,
2013-06-01 04:23:00,34.7,8.6,0.00,West,265,0.0,0.0,33,0.00,,---,0.00,VWS V14.00,2013-06-01 10:23:00,
2013-06-01 04:24:00,34.5,8.4,0.00,West,265,0.0,0.0,33,0.00,,---,0.00,VWS V14.00,2013-06-01 10:24:00,
2013-06-01 04:26:00,34.5,8.4,0.00,West,265,0.0,0.0,33,0.00,,---,0.00,VWS V14.00,2013-06-01 10:26:00,
2013-06-01 04:28:00,34.5,8.4,0.00,West,265,0.0,0.0,33,0.00,,---,0.00,VWS V14.00,2013-06-01 10:28:00,
2013-06-01 04:29:00,34.5,8.4,0.00,West,265,0.0,0.0,33,0.00,,---,0.00,VWS V14.00,2013-06-01 10:29:00,
2013-06-01 04:30:00,34.5,8.4,0.00,West,265,0.0,0.0,33,0.00,,---,0.00,VWS V14.00,2013-06-01 10:30:00,
2013-06-01 04:31:00,34.5,8.4,0.00,West,265,0.0,0.0,33,0.00,,---,0.00,VWS V14.00,2013-06-01 10:31:00,
2013-06-01 04:33:00,34.3,8.2,0.00,West,265,0.0,0.0,33,0.00,,---,0.00,VWS V14.00,2013-06-01 10:33:00,
2013-06-01 04:34:00,34.3,8.2,0.00,West,265,0.0,0.0,33,0.00,,---,0.00,VWS V14.00,2013-06-01 10:34:00,
2013-06-01 04:35:00,34.3,8.2,0.00,West,265,0.0,0.0,33,0.00,,---,0.00,VWS V14.00,2013-06-01 10:35:00,
2013-06-01 04:36:00,34.3,8.2,0.00,West,265,0.0,0.0,33,0.00,,---,0.00,VWS V14.00,2013-06-01 10:36:00,
2013-06-01 04:38:00,34.3,8.2,0.00,West,265,0.0,0.0,33,0.00,,---,0.00,VWS V14.00,2013-06-01 10:38:00,
2013-06-01 04:39:00,34.3,8.2,0.00,West,265,0.0,0.0,33,0.00,,---,0.00,VWS V14.00,2013-06-01 10:39:00,
2013-06-01 04:40:00,34.3,8.9,0.00,West,265,0.0,0.0,34,0.00,,---,0.00,VWS V14.00,2013-06-01 10:40:00,
2013-06-01 04:42:00,34.2,8.7,0.00,WNW,299,3.6,4.0,34,0.00,,---,0.00,VWS V14.00,2013-06-01 10:42:00,
2013-06-01 04:43:00,34.2,8.7,0.00,WNW,299,4.0,4.0,34,0.00,,---,0.00,VWS V14.00,2013-06-01 10:43:00,
2013-06-01 04:44:00,34.2,8.7,0.00,WNW,299,0.0,2.2,34,0.00,,---,0.00,VWS V14.00,2013-06-01 10:44:00,
2013-06-01 04:45:00,34.2,8.7,0.00,WNW,299,0.0,0.0,34,0.00,,---,0.00,VWS V14.00,2013-06-01 10:45:00,
2013-06-01 04:47:00,34.2,8.7,0.00,WNW,299,0.0,0.0,34,0.00,,---,0.00,VWS V14.00,2013-06-01 10:47:00,
2013-06-01 04:48:00,34.2,8.7,0.00,WNW,299,0.0,0.0,34,0.00,,---,0.00,VWS V14.00,2013-06-01 10:48:00,
2013-06-01 04:49:00,34.2,8.7,0.00,WNW,290,0.0,0.0,34,0.00,,---,0.00,VWS V14.00,2013-06-01 10:49:00,
2013-06-01 04:50:00,34.2,8.7,0.00,WNW,299,0.0,0.0,34,0.00,,---,0.00,VWS V14.00,2013-06-01 10:50:00,
2013-06-01 04:52:00,34.0,8.6,0.00,WSW,238,0.0,0.0,34,0.00,,---,0.00,VWS V14.00,2013-06-01 10:52:00,
2013-06-01 04:53:00,34.0,8.6,0.00,WSW,239,0.0,0.0,34,0.00,,---,0.00,VWS V14.00,2013-06-01 10:53:00,
2013-06-01 04:54:00,34.0,8.6,0.00,WSW,239,0.0,0.0,34,0.00,,---,0.00,VWS V14.00,2013-06-01 10:54:00,
2013-06-01 04:56:00,34.0,8.6,0.00,WSW,239,0.0,0.0,34,0.00,,---,0.00,VWS V14.00,2013-06-01 10:56:00,
2013-06-01 04:57:00,34.0,8.6,0.00,WSW,239,0.0,0.0,34,0.00,,---,0.00,VWS V14.00,2013-06-01 10:57:00,
2013-06-01 04:58:00,34.0,8.6,0.00,WSW,238,0.0,0.0,34,0.00,,---,0.00,VWS V14.00,2013-06-01 10:58:00,
2013-06-01 04:59:00,34.0,8.6,0.00,WSW,246,0.0,0.0,34,0.00,,---,0.00,VWS V14.00,2013-06-01 10:59:00,
2013-06-01 05:01:00,33.8,8.4,0.00,WSW,254,0.0,0.0,34,0.00,,---,0.00,VWS V14.00,2013-06-01 11:01:00,
2013-06-01 05:02:00,33.8,8.4,0.00,WSW,256,0.0,0.0,34,0.00,,---,0.00,VWS V14.00,2013-06-01 11:02:00,
2013-06-01 05:03:00,33.8,9.1,0.00,WSW,252,0.0,0.0,35,0.00,,---,0.00,VWS V14.00,2013-06-01 11:03:00,
2013-06-01 05:04:00,33.8,9.1,0.00,WSW,255,0.0,0.0,35,0.00,,---,0.00,VWS V14.00,2013-06-01 11:04:00,
2013-06-01 05:05:00,33.8,9.1,0.00,WSW,257,0.0,0.0,35,0.00,,---,0.00,VWS V14.00,2013-06-01 11:05:00,
2013-06-01 05:06:00,33.8,9.1,0.00,WSW,252,0.0,0.0,35,0.00,,---,0.00,VWS V14.00,2013-06-01 11:06:00,
2013-06-01 05:07:00,33.8,9.1,0.00,West,262,0.0,0.0,35,0.00,,---,0.00,VWS V14.00,2013-06-01 11:07:00,
2013-06-01 05:09:00,33.8,9.1,0.00,West,262,0.0,0.0,35,0.00,,---,0.00,VWS V14.00,2013-06-01 11:09:00,
2013-06-01 05:10:00,33.8,9.1,0.00,West,262,0.0,0.0,35,0.00,,---,0.00,VWS V14.00,2013-06-01 11:10:00,
2013-06-01 05:11:00,33.8,9.1,0.00,West,262,0.0,0.0,35,0.00,,---,0.00,VWS V14.00,2013-06-01 11:11:00,
2013-06-01 05:12:00,33.8,9.1,0.00,WSW,257,0.0,0.0,35,0.00,,---,0.00,VWS V14.00,2013-06-01 11:12:00,
2013-06-01 05:14:00,33.8,9.1,0.00,WSW,254,0.0,0.0,35,0.00,,---,0.00,VWS V14.00,2013-06-01 11:14:00,
2013-06-01 05:15:00,33.8,9.1,0.00,WSW,258,0.0,0.0,35,0.00,,---,0.00,VWS V14.00,2013-06-01 11:15:00,
2013-06-01 05:16:00,33.8,9.1,0.00,WSW,252,0.0,0.0,35,0.00,,---,0.00,VWS V14.00,2013-06-01 11:16:00,
2013-06-01 05:18:00,33.8,9.1,0.00,West,261,0.0,0.0,35,0.00,,---,0.00,VWS V14.00,2013-06-01 11:18:00,
2013-06-01 05:19:00,33.8,9.1,0.00,West,261,0.0,0.0,35,0.00,,---,0.00,VWS V14.00,2013-06-01 11:19:00,
2013-06-01 05:20:00,33.8,9.1,0.00,WSW,256,0.0,0.0,35,0.00,,---,0.00,VWS V14.00,2013-06-01 11:20:00,
2013-06-01 05:22:00,33.6,9.5,0.00,West,261,0.0,0.0,36,0.00,,---,0.00,VWS V14.00,2013-06-01 11:22:00,
2013-06-01 05:23:00,33.6,9.5,0.00,West,261,0.0,0.0,36,0.00,,---,0.00,VWS V14.00,2013-06-01 11:23:00,
2013-06-01 05:24:00,33.6,9.5,0.00,West,260,0.0,0.0,36,0.00,,---,0.00,VWS V14.00,2013-06-01 11:24:00,
2013-06-01 05:25:00,33.6,9.5,0.00,West,261,0.0,0.0,36,0.00,,---,0.00,VWS V14.00,2013-06-01 11:25:00,
2013-06-01 05:27:00,33.6,9.5,0.00,West,261,0.0,0.0,36,0.00,,---,0.00,VWS V14.00,2013-06-01 11:27:00,
2013-06-01 05:28:00,33.6,9.5,0.00,West,261,0.0,0.0,36,0.00,,---,0.00,VWS V14.00,2013-06-01 11:28:00,
2013-06-01 05:29:00,33.6,9.5,0.00,West,261,0.0,0.0,36,0.00,,---,0.00,VWS V14.00,2013-06-01 11:29:00,
2013-06-01 05:30:00,33.6,9.5,0.00,West,261,0.0,0.0,36,0.00,,---,0.00,VWS V14.00,2013-06-01 11:30:00,
2013-06-01 05:32:00,33.6,9.5,0.00,West,261,0.0,0.0,36,0.00,,---,0.00,VWS V14.00,2013-06-01 11:32:00,
2013-06-01 05:33:00,33.6,9.5,0.00,West,261,0.0,0.0,36,0.00,,---,0.00,VWS V14.00,2013-06-01 11:33:00,
2013-06-01 05:34:00,33.6,9.5,0.00,West,261,0.0,0.0,36,0.00,,---,0.00,VWS V14.00,2013-06-01 11:34:00,
2013-06-01 05:35:00,33.6,9.5,0.00,West,261,0.0,0.0,36,0.00,,---,0.00,VWS V14.00,2013-06-01 11:35:00,
2013-06-01 05:37:00,33.6,9.5,0.00,WSW,257,0.0,0.0,36,0.00,,---,0.00,VWS V14.00,2013-06-01 11:37:00,
2013-06-01 05:38:00,33.6,9.5,0.00,West,261,0.0,0.0,36,0.00,,---,0.00,VWS V14.00,2013-06-01 11:38:00,
2013-06-01 05:39:00,33.6,9.5,0.00,West,261,0.0,0.0,36,0.00,,---,0.00,VWS V14.00,2013-06-01 11:39:00,
2013-06-01 05:40:00,33.6,9.5,0.00,West,261,0.0,0.0,36,0.00,,---,0.00,VWS V14.00,2013-06-01 11:40:00,
2013-06-01 05:42:00,33.6,9.5,0.00,West,261,0.0,0.0,36,0.00,,---,0.00,VWS V14.00,2013-06-01 11:42:00,
2013-06-01 05:43:00,33.4,9.4,0.00,WSW,257,0.0,0.0,36,0.00,,---,0.00,VWS V14.00,2013-06-01 11:43:00,
2013-06-01 05:45:00,33.4,10.0,0.00,West,261,0.0,0.0,37,0.00,,---,0.00,VWS V14.00,2013-06-01 11:45:00,
2013-06-01 05:48:00,33.4,10.0,0.00,West,261,0.0,0.0,37,0.00,,---,0.00,VWS V14.00,2013-06-01 11:48:00,
2013-06-01 05:50:00,33.4,10.0,0.00,West,261,0.0,0.0,37,0.00,,---,0.00,VWS V14.00,2013-06-01 11:50:00,
2013-06-01 05:53:00,33.4,10.0,0.00,West,261,0.0,0.0,37,0.00,,---,0.00,VWS V14.00,2013-06-01 11:53:00,
2013-06-01 05:54:00,33.4,10.0,0.00,West,261,0.0,0.0,37,0.00,,---,0.00,VWS V14.00,2013-06-01 11:54:00,
2013-06-01 05:55:00,33.4,10.0,0.00,West,261,0.0,0.0,37,0.00,,---,0.00,VWS V14.00,2013-06-01 11:55:00,
2013-06-01 05:56:00,33.3,9.8,0.00,West,261,0.0,0.0,37,0.00,,---,0.00,VWS V14.00,2013-06-01 11:56:00,
2013-06-01 05:58:00,33.3,9.8,0.00,West,261,0.0,0.0,37,0.00,,---,0.00,VWS V14.00,2013-06-01 11:58:00,
2013-06-01 05:59:00,33.3,9.8,0.00,West,260,0.0,0.0,37,0.00,,---,0.00,VWS V14.00,2013-06-01 11:59:00,
2013-06-01 06:00:00,33.3,9.8,0.00,West,261,0.0,0.0,37,0.00,,---,0.00,VWS V14.00,2013-06-01 12:00:00,
2013-06-01 06:01:00,33.3,9.8,0.00,West,261,0.0,0.0,37,0.00,,---,0.00,VWS V14.00,2013-06-01 12:01:00,
2013-06-01 06:03:00,33.3,9.8,0.00,West,261,0.0,0.0,37,0.00,,---,0.00,VWS V14.00,2013-06-01 12:03:00,
2013-06-01 06:04:00,33.3,9.8,0.00,West,261,0.0,0.0,37,0.00,,---,0.00,VWS V14.00,2013-06-01 12:04:00,
2013-06-01 06:05:00,33.3,9.8,0.00,West,261,0.0,0.0,37,0.00,,---,0.00,VWS V14.00,2013-06-01 12:05:00,
2013-06-01 06:06:00,33.3,9.8,0.00,West,261,0.0,0.0,37,0.00,,---,0.00,VWS V14.00,2013-06-01 12:06:00,
2013-06-01 06:08:00,33.3,9.8,0.00,West,261,0.0,0.0,37,0.00,,---,0.00,VWS V14.00,2013-06-01 12:08:00,
2013-06-01 06:09:00,33.3,9.8,0.00,West,261,0.0,0.0,37,0.00,,---,0.00,VWS V14.00,2013-06-01 12:09:00,
2013-06-01 06:10:00,33.3,9.8,0.00,West,261,0.0,0.0,37,0.00,,---,0.00,VWS V14.00,2013-06-01 12:10:00,
2013-06-01 06:11:00,33.3,9.8,0.00,West,261,0.0,0.0,37,0.00,,---,0.00,VWS V14.00,2013-06-01 12:11:00,
2013-06-01 06:13:00,33.3,9.8,0.00,South,170,0.0,0.0,37,0.00,,---,0.00,VWS V14.00,2013-06-01 12:13:00,
2013-06-01 06:14:00,33.3,9.8,0.00,South,170,0.0,0.0,37,0.00,,---,0.00,VWS V14.00,2013-06-01 12:14:00,
2013-06-01 06:15:00,33.3,9.8,0.00,South,170,0.0,0.0,37,0.00,,---,0.00,VWS V14.00,2013-06-01 12:15:00,
2013-06-01 06:16:00,33.3,9.8,0.00,South,169,0.0,0.0,37,0.00,,---,0.00,VWS V14.00,2013-06-01 12:16:00,
2013-06-01 06:19:00,33.3,9.8,0.00,South,170,0.0,0.0,37,0.00,,---,0.00,VWS V14.00,2013-06-01 12:19:00,
2013-06-01 06:20:00,33.3,9.8,0.00,South,170,0.0,0.0,37,0.00,,---,0.00,VWS V14.00,2013-06-01 12:20:00,
2013-06-01 06:21:00,33.3,9.8,0.00,South,170,0.0,0.0,37,0.00,,---,0.00,VWS V14.00,2013-06-01 12:21:00,
2013-06-01 06:24:00,33.3,10.4,0.00,South,170,0.0,0.0,38,0.00,,---,0.00,VWS V14.00,2013-06-01 12:24:00,
2013-06-01 06:25:00,33.3,10.4,0.00,South,169,0.0,0.0,38,0.00,,---,0.00,VWS V14.00,2013-06-01 12:25:00,
2013-06-01 06:26:00,33.3,10.4,0.00,South,170,0.0,0.0,38,0.00,,---,0.00,VWS V14.00,2013-06-01 12:26:00,
2013-06-01 06:29:00,33.3,10.4,0.00,South,170,0.0,0.0,38,0.00,,---,0.00,VWS V14.00,2013-06-01 12:29:00,
2013-06-01 06:30:00,33.3,10.4,0.00,South,171,0.0,0.0,38,0.00,,---,0.00,VWS V14.00,2013-06-01 12:30:00,
2013-06-01 06:31:00,33.3,10.4,0.00,South,171,0.0,0.0,38,0.00,,---,0.00,VWS V14.00,2013-06-01 12:31:00,
2013-06-01 06:35:00,33.3,10.4,0.00,South,170,0.0,0.0,38,0.00,,---,0.00,VWS V14.00,2013-06-01 12:35:00,
2013-06-01 06:36:00,33.3,10.4,0.00,South,170,0.0,0.0,38,0.00,,---,0.00,VWS V14.00,2013-06-01 12:36:00,
2013-06-01 06:37:00,33.3,10.4,0.00,South,170,0.0,0.0,38,0.00,,---,0.00,VWS V14.00,2013-06-01 12:37:00,
2013-06-01 06:40:00,33.3,10.4,0.00,South,170,0.0,0.0,38,0.00,,---,0.00,VWS V14.00,2013-06-01 12:40:00,
2013-06-01 06:41:00,33.3,10.4,0.00,South,171,0.0,0.0,38,0.00,,---,0.00,VWS V14.00,2013-06-01 12:41:00,
2013-06-01 06:42:00,33.3,10.4,0.00,South,171,0.0,0.0,38,0.00,,---,0.00,VWS V14.00,2013-06-01 12:42:00,
2013-06-01 06:45:00,33.3,10.4,0.00,South,171,0.0,0.0,38,0.00,,---,0.00,VWS V14.00,2013-06-01 12:45:00,
2013-06-01 06:46:00,33.3,10.4,0.00,South,170,0.0,0.0,38,0.00,,---,0.00,VWS V14.00,2013-06-01 12:46:00,
2013-06-01 06:47:00,33.3,10.4,0.00,South,170,0.0,0.0,38,0.00,,---,0.00,VWS V14.00,2013-06-01 12:47:00,
2013-06-01 06:50:00,33.3,10.4,0.00,South,171,0.0,0.0,38,0.00,,---,0.00,VWS V14.00,2013-06-01 12:50:00,
2013-06-01 06:51:00,33.3,10.4,0.00,South,170,0.0,0.0,38,0.00,,---,0.00,VWS V14.00,2013-06-01 12:51:00,
2013-06-01 06:52:00,33.4,10.6,0.00,South,170,0.0,0.0,38,0.00,,---,0.00,VWS V14.00,2013-06-01 12:52:00,
2013-06-01 06:55:00,33.4,11.2,0.00,South,170,0.0,0.0,39,0.00,,---,0.00,VWS V14.00,2013-06-01 12:55:00,
2013-06-01 06:56:00,33.4,11.2,0.00,South,170,0.0,0.0,39,0.00,,---,0.00,VWS V14.00,2013-06-01 12:56:00,
2013-06-01 06:57:00,33.4,11.2,0.00,South,170,0.0,0.0,39,0.00,,---,0.00,VWS V14.00,2013-06-01 12:57:00,
2013-06-01 07:00:00,33.6,11.3,0.00,South,170,0.0,0.0,39,0.00,,---,0.00,VWS V14.00,2013-06-01 13:00:00,
2013-06-01 07:01:00,33.6,11.3,0.00,South,170,0.0,0.0,39,0.00,,---,0.00,VWS V14.00,2013-06-01 13:01:00,
2013-06-01 07:02:00,33.6,11.9,0.00,South,170,0.0,0.0,40,0.00,,---,0.00,VWS V14.00,2013-06-01 13:02:00,
2013-06-01 07:03:00,33.6,11.9,0.00,South,171,0.0,0.0,40,0.00,,---,0.00,VWS V14.00,2013-06-01 13:03:00,
2013-06-01 07:05:00,33.6,11.9,0.00,South,170,0.0,0.0,40,0.00,,---,0.00,VWS V14.00,2013-06-01 13:05:00,
2013-06-01 07:06:00,33.6,11.9,0.00,South,170,0.0,0.0,40,0.00,,---,0.00,VWS V14.00,2013-06-01 13:06:00,
2013-06-01 07:07:00,33.8,12.1,0.00,South,170,0.0,0.0,40,0.00,,---,0.00,VWS V14.00,2013-06-01 13:07:00,
2013-06-01 07:08:00,33.8,12.1,0.00,South,170,0.0,0.0,40,0.00,,---,0.00,VWS V14.00,2013-06-01 13:08:00,
2013-06-01 07:11:00,33.8,12.1,0.00,South,170,0.0,0.0,40,0.00,,---,0.00,VWS V14.00,2013-06-01 13:11:00,
2013-06-01 07:12:00,34.0,12.2,0.00,SSE,166,0.0,0.0,40,0.00,,---,0.00,VWS V14.00,2013-06-01 13:12:00,
2013-06-01 07:13:00,34.0,12.2,0.00,South,171,0.0,0.0,40,0.00,,---,0.00,VWS V14.00,2013-06-01 13:13:00,
2013-06-01 07:16:00,34.2,12.4,0.00,South,170,0.0,0.0,40,0.00,,---,0.00,VWS V14.00,2013-06-01 13:16:00,
2013-06-01 07:17:00,34.2,12.4,0.00,South,170,0.0,0.0,40,0.00,,---,0.00,VWS V14.00,2013-06-01 13:17:00,
2013-06-01 07:18:00,34.3,12.5,0.00,South,169,0.0,0.0,40,0.00,,---,0.00,VWS V14.00,2013-06-01 13:18:00,
2013-06-01 07:21:00,34.3,12.5,0.00,South,169,0.0,0.0,40,0.00,,---,0.00,VWS V14.00,2013-06-01 13:21:00,
2013-06-01 07:22:00,34.5,12.7,0.00,South,170,0.0,0.0,40,0.00,,---,0.00,VWS V14.00,2013-06-01 13:22:00,
2013-06-01 07:23:00,34.5,12.7,0.00,South,170,0.0,0.0,40,0.00,,---,0.00,VWS V14.00,2013-06-01 13:23:00,
2013-06-01 07:24:00,34.5,12.7,0.00,South,170,0.0,0.0,40,0.00,,---,0.00,VWS V14.00,2013-06-01 13:24:00,
2013-06-01 07:26:00,34.7,12.9,0.00,SSE,167,0.0,0.0,40,0.00,,---,0.00,VWS V14.00,2013-06-01 13:26:00,
2013-06-01 07:27:00,34.7,12.9,0.00,South,170,0.0,0.0,40,0.00,,---,0.00,VWS V14.00,2013-06-01 13:27:00,
2013-06-01 07:29:00,34.9,13.0,0.00,South,170,0.0,0.0,40,0.00,,---,0.00,VWS V14.00,2013-06-01 13:29:00,
2013-06-01 07:31:00,35.1,13.2,0.00,South,170,0.0,0.0,40,0.00,,---,0.00,VWS V14.00,2013-06-01 13:31:00,
2013-06-01 07:32:00,35.1,13.2,0.00,South,170,0.0,0.0,40,0.00,,---,0.00,VWS V14.00,2013-06-01 13:32:00,
2013-06-01 07:34:00,35.4,13.5,0.00,SSE,167,0.0,0.0,40,0.00,,---,0.00,VWS V14.00,2013-06-01 13:34:00,
2013-06-01 07:36:00,35.4,13.5,0.00,South,170,0.0,0.0,40,0.00,,---,0.00,VWS V14.00,2013-06-01 13:36:00,
2013-06-01 07:37:00,35.6,13.7,0.00,ESE,108,2.2,2.7,40,0.00,,---,0.00,VWS V14.00,2013-06-01 13:37:00,
2013-06-01 07:39:00,35.8,13.8,0.00,SSE,148,0.0,2.7,40,0.00,,---,0.00,VWS V14.00,2013-06-01 13:39:00,
2013-06-01 07:41:00,36.0,14.0,0.00,SSE,148,0.0,0.0,40,0.00,,---,0.00,VWS V14.00,2013-06-01 13:41:00,
2013-06-01 07:42:00,36.0,14.0,0.00,SSE,148,0.0,0.0,40,0.00,,---,0.00,VWS V14.00,2013-06-01 13:42:00,
2013-06-01 07:44:00,36.3,14.3,0.00,SSW,201,0.0,0.0,40,0.00,,---,0.00,VWS V14.00,2013-06-01 13:44:00,
2013-06-01 07:46:00,36.5,14.5,0.00,SSW,197,0.0,0.0,40,0.00,,---,0.00,VWS V14.00,2013-06-01 13:46:00,
2013-06-01 07:47:00,36.5,14.5,0.00,SSW,201,0.0,0.0,40,0.00,,---,0.00,VWS V14.00,2013-06-01 13:47:00,
2013-06-01 07:49:00,36.9,14.8,0.00,ESE,118,2.7,2.7,40,0.00,,---,0.00,VWS V14.00,2013-06-01 13:49:00,
2013-06-01 07:51:00,37.2,15.1,0.00,South,178,2.7,2.7,40,0.00,,---,0.00,VWS V14.00,2013-06-01 13:51:00,
2013-06-01 07:52:00,37.2,15.1,0.00,South,177,3.6,3.6,40,0.00,,---,0.00,VWS V14.00,2013-06-01 13:52:00,
2013-06-01 07:54:00,37.6,14.9,0.00,SE,145,3.1,3.1,39,0.00,,---,0.00,VWS V14.00,2013-06-01 13:54:00,
2013-06-01 07:57:00,37.8,15.0,0.00,SE,145,0.0,0.0,39,0.00,,---,0.00,VWS V14.00,2013-06-01 13:57:00,
2013-06-01 07:59:00,38.1,15.4,0.00,South,179,0.0,0.0,39,0.00,,---,0.00,VWS V14.00,2013-06-01 13:59:00,
2013-06-01 08:00:00,38.3,15.5,0.00,South,175,0.0,0.0,39,0.00,,---,0.00,VWS V14.00,2013-06-01 14:00:00,
2013-06-01 08:02:00,38.5,15.7,0.00,SE,136,0.0,0.0,39,0.00,,---,0.00,VWS V14.00,2013-06-01 14:02:00,
2013-06-01 08:04:00,38.8,16.0,0.00,ESE,123,2.2,3.6,39,0.00,,---,0.00,VWS V14.00,2013-06-01 14:04:00,
2013-06-01 08:05:00,38.8,16.0,0.00,ESE,123,0.0,2.2,39,0.00,,---,0.00,VWS V14.00,2013-06-01 14:05:00,
2013-06-01 08:07:00,39.2,16.3,0.00,ESE,123,0.0,0.0,39,0.00,,---,0.00,VWS V14.00,2013-06-01 14:07:00,
2013-06-01 08:10:00,39.6,16.7,0.00,East,97,2.7,2.7,39,0.00,,---,0.00,VWS V14.00,2013-06-01 14:10:00,
2013-06-01 08:12:00,39.9,17.0,0.00,ESE,104,3.6,3.6,39,0.00,,---,0.00,VWS V14.00,2013-06-01 14:12:00,
2013-06-01 08:13:00,39.9,17.0,0.00,ESE,105,3.1,3.6,39,0.00,,---,0.00,VWS V14.00,2013-06-01 14:13:00,
2013-06-01 08:15:00,40.3,17.3,0.00,ESE,106,3.1,3.1,39,0.00,,---,0.00,VWS V14.00,2013-06-01 14:15:00,
2013-06-01 08:17:00,40.6,17.6,0.00,ESE,110,0.0,4.0,39,0.00,,---,0.00,VWS V14.00,2013-06-01 14:17:00,
2013-06-01 08:18:00,40.6,17.6,0.00,ESE,110,0.0,4.0,39,0.00,,---,0.00,VWS V14.00,2013-06-01 14:18:00,
2013-06-01 08:20:00,41.0,18.0,0.00,ESE,109,0.0,0.0,39,0.00,,---,0.00,VWS V14.00,2013-06-01 14:20:00,
2013-06-01 08:21:00,41.0,18.0,0.00,ESE,109,0.0,0.0,39,0.00,,---,0.00,VWS V14.00,2013-06-01 14:21:00,
2013-06-01 08:23:00,41.4,18.3,0.00,SW,232,0.0,0.0,39,0.00,,---,0.00,VWS V14.00,2013-06-01 14:23:00,
2013-06-01 08:24:00,41.5,18.4,0.00,SW,221,0.0,0.0,39,0.00,,---,0.00,VWS V14.00,2013-06-01 14:24:00,
2013-06-01 08:25:00,41.7,18.6,0.00,SW,214,0.0,0.0,39,0.00,,---,0.00,VWS V14.00,2013-06-01 14:25:00,
2013-06-01 08:26:00,41.7,18.6,0.00,SW,214,0.0,0.0,39,0.00,,---,0.00,VWS V14.00,2013-06-01 14:26:00,
2013-06-01 08:28:00,42.3,19.1,0.00,SSW,211,0.0,0.0,39,0.00,,---,0.00,VWS V14.00,2013-06-01 14:28:00,
2013-06-01 08:29:00,42.4,19.2,0.00,SW,215,0.0,0.0,39,0.00,,---,0.00,VWS V14.00,2013-06-01 14:29:00,
2013-06-01 08:31:00,42.8,19.0,0.00,SW,215,0.0,0.0,38,0.00,,---,0.00,VWS V14.00,2013-06-01 14:31:00,
2013-06-01 08:33:00,43.2,19.3,0.00,WNW,287,0.0,0.0,38,0.00,,---,0.00,VWS V14.00,2013-06-01 14:33:00,
2013-06-01 08:34:00,43.2,19.3,0.00,SSW,212,0.0,0.0,38,0.00,,---,0.00,VWS V14.00,2013-06-01 14:34:00,
2013-06-01 08:35:00,43.5,19.6,0.00,East,101,4.0,5.4,38,0.00,,---,0.00,VWS V14.00,2013-06-01 14:35:00,
2013-06-01 08:36:00,43.7,19.8,0.00,East,101,4.0,4.0,38,0.00,,---,0.00,VWS V14.00,2013-06-01 14:36:00,
2013-06-01 08:38:00,43.9,19.9,0.00,ESE,104,0.0,0.0,38,0.00,,---,0.00,VWS V14.00,2013-06-01 14:38:00,
2013-06-01 08:39:00,44.1,20.1,0.00,ESE,103,0.0,0.0,38,0.00,,---,0.00,VWS V14.00,2013-06-01 14:39:00,
2013-06-01 08:41:00,44.2,20.3,0.00,East,98,2.7,2.7,38,0.00,,---,0.00,VWS V14.00,2013-06-01 14:41:00,
2013-06-01 08:43:00,44.8,20.7,0.00,ESE,106,2.7,2.7,38,0.00,,---,0.00,VWS V14.00,2013-06-01 14:43:00,
2013-06-01 08:44:00,45.0,20.9,0.00,ESE,123,2.7,2.7,38,0.00,,---,0.00,VWS V14.00,2013-06-01 14:44:00,
2013-06-01 08:46:00,45.1,21.1,0.00,SW,214,0.0,0.0,38,0.00,,---,0.00,VWS V14.00,2013-06-01 14:46:00,
2013-06-01 08:48:00,45.5,21.4,0.00,SE,139,0.0,0.0,38,0.00,,---,0.00,VWS V14.00,2013-06-01 14:48:00,
2013-06-01 08:49:00,45.7,21.5,0.00,SE,139,0.0,0.0,38,0.00,,---,0.00,VWS V14.00,2013-06-01 14:49:00,
2013-06-01 08:51:00,45.9,21.7,0.00,East,92,0.0,4.0,38,0.00,,---,0.00,VWS V14.00,2013-06-01 14:51:00,
2013-06-01 08:52:00,46.0,21.9,0.00,East,92,0.0,4.0,38,0.00,,---,0.00,VWS V14.00,2013-06-01 14:52:00,
2013-06-01 08:53:00,46.2,22.0,0.00,ESE,103,5.4,5.4,38,0.00,,---,0.00,VWS V14.00,2013-06-01 14:53:00,
2013-06-01 08:54:00,46.2,22.0,0.00,ESE,103,2.7,3.1,38,0.00,,---,0.00,VWS V14.00,2013-06-01 14:54:00,
2013-06-01 08:56:00,46.4,21.6,0.00,East,95,3.6,3.6,37,0.00,,---,0.00,VWS V14.00,2013-06-01 14:56:00,
2013-06-01 08:57:00,46.6,21.7,0.00,East,99,4.0,5.4,37,0.00,,---,0.00,VWS V14.00,2013-06-01 14:57:00,
2013-06-01 08:58:00,46.8,21.9,0.00,SE,136,0.0,0.0,37,0.00,,---,0.00,VWS V14.00,2013-06-01 14:58:00,
2013-06-01 08:59:00,46.8,21.9,0.00,SE,129,0.0,2.7,37,0.00,,---,0.00,VWS V14.00,2013-06-01 14:59:00,
2013-06-01 09:00:00,46.8,21.9,0.00,SE,124,3.1,4.9,37,0.00,,---,0.00,VWS V14.00,2013-06-01 15:00:00,
2013-06-01 09:01:00,46.9,22.0,0.00,ESE,120,2.7,3.1,37,0.00,,---,0.00,VWS V14.00,2013-06-01 15:01:00,
2013-06-01 09:02:00,46.9,22.0,0.00,ESE,119,0.0,2.2,37,0.00,,---,0.00,VWS V14.00,2013-06-01 15:02:00,
2013-06-01 09:03:00,47.1,22.2,0.00,ESE,120,0.0,0.0,37,0.00,,---,0.00,VWS V14.00,2013-06-01 15:03:00,
2013-06-01 09:04:00,47.1,22.2,0.00,ESE,120,0.0,0.0,37,0.00,,---,0.00,VWS V14.00,2013-06-01 15:04:00,
2013-06-01 09:05:00,47.1,22.2,0.00,ESE,120,0.0,0.0,37,0.00,,---,0.00,VWS V14.00,2013-06-01 15:05:00,
2013-06-01 09:06:00,47.3,22.4,0.00,ESE,120,0.0,0.0,37,0.00,,---,0.00,VWS V14.00,2013-06-01 15:06:00,
2013-06-01 09:07:00,47.3,22.4,0.00,ESE,122,0.0,0.0,37,0.00,,---,0.00,VWS V14.00,2013-06-01 15:07:00,
2013-06-01 09:08:00,47.3,22.4,0.00,SW,215,0.0,0.0,37,0.00,,---,0.00,VWS V14.00,2013-06-01 15:08:00,
2013-06-01 09:09:00,47.3,22.4,0.00,SW,214,0.0,0.0,37,0.00,,---,0.00,VWS V14.00,2013-06-01 15:09:00,
2013-06-01 09:10:00,47.5,22.5,0.00,SSW,213,0.0,0.0,37,0.00,,---,0.00,VWS V14.00,2013-06-01 15:10:00,
2013-06-01 09:12:00,47.5,22.5,0.00,SSW,197,0.0,0.0,37,0.00,,---,0.00,VWS V14.00,2013-06-01 15:12:00,
2013-06-01 09:14:00,47.7,22.7,0.00,SE,146,2.7,3.6,37,0.00,,---,0.00,VWS V14.00,2013-06-01 15:14:00,
2013-06-01 09:15:00,47.7,22.7,0.00,ESE,115,2.7,2.7,37,0.00,,---,0.00,VWS V14.00,2013-06-01 15:15:00,
2013-06-01 09:17:00,47.8,22.9,0.00,SE,126,3.1,3.6,37,0.00,,---,0.00,VWS V14.00,2013-06-01 15:17:00,
2013-06-01 09:19:00,47.8,22.9,0.00,SSW,210,0.0,3.6,37,0.00,,---,0.00,VWS V14.00,2013-06-01 15:19:00,
2013-06-01 09:20:00,48.0,23.0,0.00,SSW,210,0.0,3.6,37,0.00,,---,0.00,VWS V14.00,2013-06-01 15:20:00,
2013-06-01 09:22:00,48.0,23.0,0.00,WSW,242,0.0,0.0,37,0.00,,---,0.00,VWS V14.00,2013-06-01 15:22:00,
2013-06-01 09:23:00,48.0,23.0,0.00,South,182,0.0,0.0,37,0.00,,---,0.00,VWS V14.00,2013-06-01 15:23:00,
2013-06-01 09:24:00,48.2,23.2,0.00,West,259,6.3,6.3,37,0.00,,---,0.00,VWS V14.00,2013-06-01 15:24:00,
2013-06-01 09:25:00,48.2,23.2,0.00,East,95,3.6,3.6,37,0.00,,---,0.00,VWS V14.00,2013-06-01 15:25:00,
2013-06-01 09:27:00,48.4,22.7,0.00,WSW,240,2.2,3.6,36,0.00,,---,0.00,VWS V14.00,2013-06-01 15:27:00,
2013-06-01 09:28:00,48.4,22.7,0.00,SSW,205,0.0,2.2,36,0.00,,---,0.00,VWS V14.00,2013-06-01 15:28:00,
2013-06-01 09:29:00,48.4,22.7,0.00,West,263,2.7,2.7,36,0.00,,---,0.00,VWS V14.00,2013-06-01 15:29:00,
2013-06-01 09:30:00,48.4,22.7,0.00,West,271,0.0,2.7,36,0.00,,---,0.00,VWS V14.00,2013-06-01 15:30:00,
2013-06-01 09:33:00,48.4,22.7,0.00,WNW,298,8.1,8.1,36,0.00,,---,0.00,VWS V14.00,2013-06-01 15:33:00,
2013-06-01 09:34:00,48.6,22.8,0.00,WNW,287,0.0,8.1,36,0.00,,---,0.00,VWS V14.00,2013-06-01 15:34:00,
2013-06-01 09:35:00,48.6,22.8,0.00,NW,313,0.0,0.0,36,0.00,,---,0.00,VWS V14.00,2013-06-01 15:35:00,
2013-06-01 09:38:00,48.7,23.0,0.00,SSW,212,0.0,2.7,36,0.00,,---,0.00,VWS V14.00,2013-06-01 15:38:00,
2013-06-01 09:39:00,48.7,23.0,0.00,West,274,0.0,0.0,36,0.00,,---,0.00,VWS V14.00,2013-06-01 15:39:00,
2013-06-01 09:40:00,48.9,23.2,0.00,SW,214,4.0,7.6,36,0.00,,---,0.00,VWS V14.00,2013-06-01 15:40:00,
2013-06-01 09:43:00,49.1,23.3,0.00,WNW,291,0.0,2.2,36,0.00,,---,0.00,VWS V14.00,2013-06-01 15:43:00,
2013-06-01 09:44:00,49.1,23.3,0.00,WNW,287,3.6,3.6,36,0.00,,---,0.00,VWS V14.00,2013-06-01 15:44:00,
2013-06-01 09:45:00,49.3,23.5,0.00,WSW,243,0.0,3.6,36,0.00,,---,0.00,VWS V14.00,2013-06-01 15:45:00,
2013-06-01 09:48:00,49.5,23.6,0.00,SW,233,2.7,2.7,36,0.00,,---,0.00,VWS V14.00,2013-06-01 15:48:00,
2013-06-01 09:49:00,49.3,23.5,0.00,SW,223,0.0,2.7,36,0.00,,---,0.00,VWS V14.00,2013-06-01 15:49:00,
2013-06-01 09:50:00,49.5,23.6,0.00,SW,223,0.0,0.0,36,0.00,,---,0.00,VWS V14.00,2013-06-01 15:50:00,
2013-06-01 09:51:00,49.5,23.6,0.00,SW,222,0.0,0.0,36,0.00,,---,0.00,VWS V14.00,2013-06-01 15:51:00,
2013-06-01 09:53:00,49.5,23.6,0.00,West,264,2.2,2.2,36,0.00,,---,0.00,VWS V14.00,2013-06-01 15:53:00,
2013-06-01 09:54:00,49.6,23.8,0.00,West,260,0.0,2.7,36,0.00,,---,0.00,VWS V14.00,2013-06-01 15:54:00,
2013-06-01 09:55:00,49.6,23.8,0.00,WSW,251,2.7,3.6,36,0.00,,---,0.00,VWS V14.00,2013-06-01 15:55:00,
2013-06-01 09:56:00,49.6,23.8,0.00,West,264,4.0,4.0,36,0.00,,---,0.00,VWS V14.00,2013-06-01 15:56:00,
2013-06-01 09:58:00,49.6,23.8,0.00,NW,317,6.3,6.3,36,0.00,,---,0.00,VWS V14.00,2013-06-01 15:58:00,
2013-06-01 09:59:00,49.6,23.8,0.00,WNW,302,0.0,0.0,36,0.00,,---,0.00,VWS V14.00,2013-06-01 15:59:00,
2013-06-01 10:00:00,49.8,24.0,0.00,WNW,300,0.0,0.0,36,0.00,,---,0.00,VWS V14.00,2013-06-01 16:00:00,
2013-06-01 10:01:00,49.8,24.0,0.00,WNW,300,0.0,0.0,36,0.00,,---,0.00,VWS V14.00,2013-06-01 16:01:00,
2013-06-01 10:02:00,49.8,24.0,0.00,WNW,293,0.0,0.0,36,0.00,,---,0.00,VWS V14.00,2013-06-01 16:02:00,
2013-06-01 10:03:00,49.8,24.0,0.00,WNW,293,0.0,0.0,36,0.00,,---,0.00,VWS V14.00,2013-06-01 16:03:00,
2013-06-01 10:04:00,49.8,24.0,0.00,WSW,241,4.9,4.9,36,0.00,,---,0.00,VWS V14.00,2013-06-01 16:04:00,
2013-06-01 10:06:00,49.8,24.0,0.00,WNW,301,3.6,3.6,36,0.00,,---,0.00,VWS V14.00,2013-06-01 16:06:00,
2013-06-01 10:07:00,50.0,23.4,0.00,SW,235,3.1,3.1,35,0.00,,---,0.00,VWS V14.00,2013-06-01 16:07:00,
2013-06-01 10:08:00,50.0,23.4,0.00,WSW,248,3.6,3.6,35,0.00,,---,0.00,VWS V14.00,2013-06-01 16:08:00,
2013-06-01 10:09:00,50.0,23.4,0.00,West,281,2.7,4.9,35,0.00,,---,0.00,VWS V14.00,2013-06-01 16:09:00,
2013-06-01 10:11:00,50.0,23.4,0.00,SW,229,5.4,5.4,35,0.00,,---,0.00,VWS V14.00,2013-06-01 16:11:00,
2013-06-01 10:12:00,50.0,23.4,0.00,West,270,0.0,2.7,35,0.00,,---,0.00,VWS V14.00,2013-06-01 16:12:00,
2013-06-01 10:13:00,50.0,23.4,0.00,WNW,297,2.7,2.7,35,0.00,,---,0.00,VWS V14.00,2013-06-01 16:13:00,
2013-06-01 10:14:00,50.2,23.6,0.00,WSW,240,2.2,3.1,35,0.00,,---,0.00,VWS V14.00,2013-06-01 16:14:00,
2013-06-01 10:16:00,50.2,23.6,0.00,WSW,252,3.6,3.6,35,0.00,,---,0.00,VWS V14.00,2013-06-01 16:16:00,
2013-06-01 10:17:00,50.2,23.6,0.00,SW,232,3.6,3.6,35,0.00,,---,0.00,VWS V14.00,2013-06-01 16:17:00,
2013-06-01 10:18:00,50.2,23.6,0.00,WSW,239,0.0,0.0,35,0.00,,---,0.00,VWS V14.00,2013-06-01 16:18:00,
2013-06-01 10:19:00,50.2,23.6,0.00,WNW,282,3.1,3.1,35,0.00,,---,0.00,VWS V14.00,2013-06-01 16:19:00,
2013-06-01 10:21:00,50.2,23.6,0.00,WNW,291,2.7,2.7,35,0.00,,---,0.00,VWS V14.00,2013-06-01 16:21:00,
2013-06-01 10:22:00,50.2,23.6,0.00,West,281,0.0,4.9,35,0.00,,---,0.00,VWS V14.00,2013-06-01 16:22:00,
2013-06-01 10:24:00,50.2,23.6,0.00,West,266,3.6,3.6,35,0.00,,---,0.00,VWS V14.00,2013-06-01 16:24:00,
2013-06-01 10:25:00,50.4,23.8,0.00,WSW,255,0.0,0.0,35,0.00,,---,0.00,VWS V14.00,2013-06-01 16:25:00,
2013-06-01 10:26:00,50.4,23.8,0.00,WSW,242,0.0,0.0,35,0.00,,---,0.00,VWS V14.00,2013-06-01 16:26:00,
2013-06-01 10:27:00,50.4,23.8,0.00,WNW,300,3.1,3.1,35,0.00,,---,0.00,VWS V14.00,2013-06-01 16:27:00,
2013-06-01 10:29:00,50.4,23.8,0.00,WSW,256,0.0,2.2,35,0.00,,---,0.00,VWS V14.00,2013-06-01 16:29:00,
2013-06-01 10:30:00,50.5,23.9,0.00,WSW,258,3.6,3.6,35,0.00,,---,0.00,VWS V14.00,2013-06-01 16:30:00,
2013-06-01 10:31:00,50.5,24.6,0.00,WSW,239,2.7,2.7,36,0.00,,---,0.00,VWS V14.00,2013-06-01 16:31:00,
2013-06-01 10:32:00,50.5,24.6,0.00,West,261,3.6,4.0,36,0.00,,---,0.00,VWS V14.00,2013-06-01 16:32:00,
2013-06-01 10:34:00,50.5,24.6,0.00,ESE,119,3.6,3.6,36,0.00,,---,0.00,VWS V14.00,2013-06-01 16:34:00,
2013-06-01 10:35:00,50.5,24.6,0.00,SE,131,4.0,4.9,36,0.00,,---,0.00,VWS V14.00,2013-06-01 16:35:00,
2013-06-01 10:36:00,50.5,24.6,0.00,East,82,0.0,5.4,36,0.00,,---,0.00,VWS V14.00,2013-06-01 16:36:00,
2013-06-01 10:37:00,50.5,24.6,0.00,South,172,2.7,5.8,36,0.00,,---,0.00,VWS V14.00,2013-06-01 16:37:00,
2013-06-01 10:39:00,50.5,24.6,0.00,WNW,287,0.0,2.2,36,0.00,,---,0.00,VWS V14.00,2013-06-01 16:39:00,
2013-06-01 10:40:00,50.7,24.8,0.00,SE,127,3.1,3.1,36,0.00,,---,0.00,VWS V14.00,2013-06-01 16:40:00,
2013-06-01 10:41:00,50.7,24.8,0.00,SSW,203,2.2,3.1,36,0.00,,---,0.00,VWS V14.00,2013-06-01 16:41:00,
2013-06-01 10:42:00,50.7,24.8,0.00,WSW,246,4.0,4.0,36,0.00,,---,0.00,VWS V14.00,2013-06-01 16:42:00,
2013-06-01 10:43:00,50.7,24.8,0.00,SSE,158,3.6,4.0,36,0.00,,---,0.00,VWS V14.00,2013-06-01 16:43:00,
2013-06-01 10:44:00,50.7,24.8,0.00,SSW,195,0.0,0.0,36,0.00,,---,0.00,VWS V14.00,2013-06-01 16:44:00,
2013-06-01 10:45:00,50.7,24.8,0.00,SSW,209,0.0,2.2,36,0.00,,---,0.00,VWS V14.00,2013-06-01 16:45:00,
2013-06-01 10:46:00,50.7,24.8,0.00,WSW,237,0.0,4.0,36,0.00,,---,0.00,VWS V14.00,2013-06-01 16:46:00,
2013-06-01 10:47:00,50.7,24.8,0.00,WSW,237,0.0,4.0,36,0.00,,---,0.00,VWS V14.00,2013-06-01 16:47:00,
2013-06-01 10:48:00,50.7,24.8,0.00,South,189,0.0,0.0,36,0.00,,---,0.00,VWS V14.00,2013-06-01 16:48:00,
2013-06-01 10:49:00,50.9,24.9,0.00,SE,135,3.6,5.4,36,0.00,,---,0.00,VWS V14.00,2013-06-01 16:49:00,
2013-06-01 10:50:00,50.9,24.9,0.00,ESE,123,0.0,3.1,36,0.00,,---,0.00,VWS V14.00,2013-06-01 16:50:00,
2013-06-01 10:52:00,50.9,24.9,0.00,SW,221,0.0,2.7,36,0.00,,---,0.00,VWS V14.00,2013-06-01 16:52:00,
2013-06-01 10:53:00,51.1,25.1,0.00,SE,138,5.8,5.8,36,0.00,,---,0.00,VWS V14.00,2013-06-01 16:53:00,
2013-06-01 10:54:00,51.1,25.1,0.00,SSW,211,4.0,4.0,36,0.00,,---,0.00,VWS V14.00,2013-06-01 16:54:00,
2013-06-01 10:55:00,51.1,25.1,0.00,ESE,115,3.6,4.5,36,0.00,,---,0.00,VWS V14.00,2013-06-01 16:55:00,
2013-06-01 10:57:00,51.1,25.7,0.00,ESE,117,5.4,5.4,37,0.00,,---,0.00,VWS V14.00,2013-06-01 16:57:00,
2013-06-01 10:59:00,51.3,25.9,0.00,ENE,67,4.0,4.0,37,0.00,,---,0.00,VWS V14.00,2013-06-01 16:59:00,
2013-06-01 11:01:00,51.3,25.9,0.00,East,87,3.6,5.4,37,0.00,,---,0.00,VWS V14.00,2013-06-01 17:01:00,
2013-06-01 11:02:00,51.4,26.0,0.00,SSE,155,0.0,0.0,37,0.00,,---,0.00,VWS V14.00,2013-06-01 17:02:00,
2013-06-01 11:03:00,51.4,26.0,0.00,SSE,168,2.7,3.1,37,0.00,,---,0.00,VWS V14.00,2013-06-01 17:03:00,
2013-06-01 11:05:00,51.6,26.2,0.00,South,186,0.0,0.0,37,0.00,,---,0.00,VWS V14.00,2013-06-01 17:05:00,
2013-06-01 11:06:00,51.6,26.2,0.00,SW,214,2.2,2.7,37,0.00,,---,0.00,VWS V14.00,2013-06-01 17:06:00,
2013-06-01 11:07:00,51.6,26.2,0.00,West,269,4.0,4.0,37,0.00,,---,0.00,VWS V14.00,2013-06-01 17:07:00,
2013-06-01 11:09:00,51.8,25.7,0.00,West,266,3.6,3.6,36,0.00,,---,0.00,VWS V14.00,2013-06-01 17:09:00,
2013-06-01 11:10:00,51.8,25.7,0.00,SE,128,2.7,2.7,36,0.00,,---,0.00,VWS V14.00,2013-06-01 17:10:00,
2013-06-01 11:11:00,52.0,25.9,0.00,ESE,112,4.0,4.9,36,0.00,,---,0.00,VWS V14.00,2013-06-01 17:11:00,
2013-06-01 11:12:00,52.0,25.9,0.00,East,93,3.6,3.6,36,0.00,,---,0.00,VWS V14.00,2013-06-01 17:12:00,
2013-06-01 11:14:00,52.2,26.0,0.00,ESE,112,6.3,6.3,36,0.00,,---,0.00,VWS V14.00,2013-06-01 17:14:00,
2013-06-01 11:15:00,52.3,26.2,0.00,ESE,102,3.6,4.0,36,0.00,,---,0.00,VWS V14.00,2013-06-01 17:15:00,
2013-06-01 11:16:00,52.5,27.0,0.00,South,191,0.0,2.2,37,0.00,,---,0.00,VWS V14.00,2013-06-01 17:16:00,
2013-06-01 11:17:00,52.7,27.2,0.00,SE,126,3.1,3.1,37,0.00,,---,0.00,VWS V14.00,2013-06-01 17:17:00,
2013-06-01 11:19:00,53.1,27.5,0.00,ESE,106,5.8,6.7,37,0.00,,---,0.00,VWS V14.00,2013-06-01 17:19:00,
2013-06-01 11:20:00,53.1,27.5,0.00,East,97,4.0,4.5,37,0.00,,---,0.00,VWS V14.00,2013-06-01 17:20:00,
2013-06-01 11:21:00,53.2,27.7,0.00,SE,130,0.0,2.2,37,0.00,,---,0.00,VWS V14.00,2013-06-01 17:21:00,
2013-06-01 11:22:00,53.4,27.8,0.00,ESE,106,3.1,3.6,37,0.00,,---,0.00,VWS V14.00,2013-06-01 17:22:00,
2013-06-01 11:24:00,53.6,27.3,0.00,ESE,113,2.7,2.7,36,0.00,,---,0.00,VWS V14.00,2013-06-01 17:24:00,
2013-06-01 11:25:00,53.8,27.5,0.00,SW,224,3.6,7.2,36,0.00,,---,0.00,VWS V14.00,2013-06-01 17:25:00,
2013-06-01 11:26:00,54.0,27.6,0.00,WSW,250,4.0,4.0,36,0.00,,---,0.00,VWS V14.00,2013-06-01 17:26:00,
2013-06-01 11:27:00,54.0,27.6,0.00,SW,226,0.0,3.1,36,0.00,,---,0.00,VWS V14.00,2013-06-01 17:27:00,
2013-06-01 11:29:00,54.1,27.8,0.00,SSW,205,0.0,3.6,36,0.00,,---,0.00,VWS V14.00,2013-06-01 17:29:00,
2013-06-01 11:30:00,54.3,28.0,0.00,East,87,2.7,2.7,36,0.00,,---,0.00,VWS V14.00,2013-06-01 17:30:00,
2013-06-01 11:31:00,54.3,28.0,0.00,SW,235,0.0,2.2,36,0.00,,---,0.00,VWS V14.00,2013-06-01 17:31:00,
2013-06-01 11:32:00,54.3,28.0,0.00,ESE,110,5.4,5.4,36,0.00,,---,0.00,VWS V14.00,2013-06-01 17:32:00,
2013-06-01 11:34:00,54.5,28.1,0.00,East,80,4.0,4.9,36,0.00,,---,0.00,VWS V14.00,2013-06-01 17:34:00,
2013-06-01 11:35:00,54.5,28.1,0.00,SE,130,4.9,4.9,36,0.00,,---,0.00,VWS V14.00,2013-06-01 17:35:00,
2013-06-01 11:36:00,54.7,28.3,0.00,West,265,4.0,6.3,36,0.00,,---,0.00,VWS V14.00,2013-06-01 17:36:00,
2013-06-01 11:37:00,54.7,28.3,0.00,ESE,110,4.0,6.3,36,0.00,,---,0.00,VWS V14.00,2013-06-01 17:37:00,
2013-06-01 11:39:00,54.9,28.4,0.00,ESE,104,2.7,3.6,36,0.00,,---,0.00,VWS V14.00,2013-06-01 17:39:00,
2013-06-01 11:40:00,55.0,28.6,0.00,SE,132,2.7,3.6,36,0.00,,---,0.00,VWS V14.00,2013-06-01 17:40:00,
2013-06-01 11:41:00,55.0,28.6,0.00,SSW,198,2.2,2.2,36,0.00,,---,0.00,VWS V14.00,2013-06-01 17:41:00,
2013-06-01 11:42:00,55.2,28.8,0.00,SW,235,3.1,3.1,36,0.00,,---,0.00,VWS V14.00,2013-06-01 17:42:00,
2013-06-01 11:43:00,55.2,28.8,0.00,SW,235,3.1,3.1,36,0.00,,---,0.00,VWS V14.00,2013-06-01 17:43:00,
2013-06-01 11:45:00,55.2,28.8,0.00,ENE,72,3.1,5.8,36,0.00,,---,0.00,VWS V14.00,2013-06-01 17:45:00,
2013-06-01 11:47:00,55.4,28.2,0.00,SE,124,3.1,3.1,35,0.00,,---,0.00,VWS V14.00,2013-06-01 17:47:00,
2013-06-01 11:48:00,55.6,28.4,0.00,ESE,109,0.0,3.6,35,0.00,,---,0.00,VWS V14.00,2013-06-01 17:48:00,
2013-06-01 11:50:00,55.8,28.5,0.00,WSW,252,0.0,0.0,35,0.00,,---,0.00,VWS V14.00,2013-06-01 17:50:00,
2013-06-01 11:51:00,55.8,28.5,0.00,WSW,251,2.7,2.7,35,0.00,,---,0.00,VWS V14.00,2013-06-01 17:51:00,
2013-06-01 11:52:00,55.9,28.7,0.00,SW,231,0.0,0.0,35,0.00,,---,0.00,VWS V14.00,2013-06-01 17:52:00,
2013-06-01 11:53:00,55.9,28.7,0.00,South,180,2.7,4.0,35,0.00,,---,0.00,VWS V14.00,2013-06-01 17:53:00,
2013-06-01 11:55:00,55.9,28.7,0.00,ESE,121,3.1,5.4,35,0.00,,---,0.00,VWS V14.00,2013-06-01 17:55:00,
2013-06-01 11:56:00,55.9,28.7,0.00,SE,126,3.1,6.3,35,0.00,,---,0.00,VWS V14.00,2013-06-01 17:56:00,
2013-06-01 11:57:00,56.1,28.9,0.00,ESE,105,4.0,5.4,35,0.00,,---,0.00,VWS V14.00,2013-06-01 17:57:00,
2013-06-01 11:58:00,56.1,28.9,0.00,ESE,104,2.7,4.0,35,0.00,,---,0.00,VWS V14.00,2013-06-01 17:58:00,
2013-06-01 12:00:00,56.3,29.0,0.00,WSW,252,0.0,0.0,35,0.00,,---,0.00,VWS V14.00,2013-06-01 18:00:00,
2013-06-01 12:01:00,56.3,29.0,0.00,SSW,205,3.6,4.0,35,0.00,,---,0.00,VWS V14.00,2013-06-01 18:01:00,
2013-06-01 12:02:00,56.5,29.2,0.00,NW,313,2.7,3.1,35,0.00,,---,0.00,VWS V14.00,2013-06-01 18:02:00,
2013-06-01 12:03:00,56.7,29.3,0.00,NW,321,2.2,3.1,35,0.00,,---,0.00,VWS V14.00,2013-06-01 18:03:00,
2013-06-01 12:05:00,56.7,29.3,0.00,West,265,0.0,0.0,35,0.00,,---,0.00,VWS V14.00,2013-06-01 18:05:00,
2013-06-01 12:06:00,56.8,29.5,0.00,WNW,289,3.1,4.0,35,0.00,,---,0.00,VWS V14.00,2013-06-01 18:06:00,
2013-06-01 12:07:00,56.8,29.5,0.00,WSW,249,2.2,2.2,35,0.00,,---,0.00,VWS V14.00,2013-06-01 18:07:00,
2013-06-01 12:08:00,56.8,29.5,0.00,WSW,249,0.0,0.0,35,0.00,,---,0.00,VWS V14.00,2013-06-01 18:08:00,
2013-06-01 12:10:00,56.8,29.5,0.00,SW,231,0.0,0.0,35,0.00,,---,0.00,VWS V14.00,2013-06-01 18:10:00,
2013-06-01 12:11:00,56.8,29.5,0.00,SE,129,4.0,4.0,35,0.00,,---,0.00,VWS V14.00,2013-06-01 18:11:00,
2013-06-01 12:13:00,56.8,29.5,0.00,WSW,247,0.0,3.6,35,0.00,,---,0.00,VWS V14.00,2013-06-01 18:13:00,
2013-06-01 12:15:00,56.8,29.5,0.00,WSW,256,2.2,4.0,35,0.00,,---,0.00,VWS V14.00,2013-06-01 18:15:00,
2013-06-01 12:16:00,57.0,29.7,0.00,WSW,258,4.0,4.0,35,0.00,,---,0.00,VWS V14.00,2013-06-01 18:16:00,
2013-06-01 12:18:00,57.0,29.7,0.00,SSW,205,0.0,3.1,35,0.00,,---,0.00,VWS V14.00,2013-06-01 18:18:00,
2013-06-01 12:19:00,56.8,29.5,0.00,SW,229,2.2,2.2,35,0.00,,---,0.00,VWS V14.00,2013-06-01 18:19:00,
2013-06-01 12:20:00,56.8,29.5,0.00,WSW,253,0.0,0.0,35,0.00,,---,0.00,VWS V14.00,2013-06-01 18:20:00,
2013-06-01 12:21:00,56.8,29.5,0.00,NW,306,2.7,3.1,35,0.00,,---,0.00,VWS V14.00,2013-06-01 18:21:00,
2013-06-01 12:23:00,56.8,29.5,0.00,WNW,299,0.0,3.6,35,0.00,,---,0.00,VWS V14.00,2013-06-01 18:23:00,
2013-06-01 12:24:00,56.8,29.5,0.00,WSW,239,0.0,0.0,35,0.00,,---,0.00,VWS V14.00,2013-06-01 18:24:00,
2013-06-01 12:25:00,56.8,29.5,0.00,SSE,157,0.0,0.0,35,0.00,,---,0.00,VWS V14.00,2013-06-01 18:25:00,
2013-06-01 12:26:00,56.8,29.5,0.00,South,175,0.0,3.6,35,0.00,,---,0.00,VWS V14.00,2013-06-01 18:26:00,
2013-06-01 12:28:00,56.8,29.5,0.00,WNW,298,2.7,2.7,35,0.00,,---,0.00,VWS V14.00,2013-06-01 18:28:00,
2013-06-01 12:29:00,56.8,29.5,0.00,West,277,2.7,2.7,35,0.00,,---,0.00,VWS V14.00,2013-06-01 18:29:00,
2013-06-01 12:30:00,57.0,29.7,0.00,WSW,254,2.7,2.7,35,0.00,,---,0.00,VWS V14.00,2013-06-01 18:30:00,
2013-06-01 12:31:00,57.0,29.7,0.00,South,171,2.7,2.7,35,0.00,,---,0.00,VWS V14.00,2013-06-01 18:31:00,
2013-06-01 12:33:00,57.0,29.7,0.00,WSW,258,3.1,3.1,35,0.00,,---,0.00,VWS V14.00,2013-06-01 18:33:00,
2013-06-01 12:34:00,57.0,29.7,0.00,SSW,213,0.0,2.2,35,0.00,,---,0.00,VWS V14.00,2013-06-01 18:34:00,
2013-06-01 12:35:00,57.0,29.7,0.00,NW,304,3.1,3.1,35,0.00,,---,0.00,VWS V14.00,2013-06-01 18:35:00,
2013-06-01 12:37:00,57.0,29.7,0.00,West,263,0.0,0.0,35,0.00,,---,0.00,VWS V14.00,2013-06-01 18:37:00,
2013-06-01 12:38:00,57.0,29.7,0.00,SW,225,0.0,2.2,35,0.00,,---,0.00,VWS V14.00,2013-06-01 18:38:00,
2013-06-01 12:39:00,57.2,29.8,0.00,SSW,196,0.0,2.2,35,0.00,,---,0.00,VWS V14.00,2013-06-01 18:39:00,
2013-06-01 12:41:00,57.0,29.7,0.00,SSE,161,0.0,3.1,35,0.00,,---,0.00,VWS V14.00,2013-06-01 18:41:00,
2013-06-01 12:42:00,57.0,29.7,0.00,West,276,3.1,3.1,35,0.00,,---,0.00,VWS V14.00,2013-06-01 18:42:00,
2013-06-01 12:43:00,57.0,29.7,0.00,SSW,207,0.0,3.1,35,0.00,,---,0.00,VWS V14.00,2013-06-01 18:43:00,
2013-06-01 12:44:00,56.8,29.5,0.00,WNW,296,0.0,2.7,35,0.00,,---,0.00,VWS V14.00,2013-06-01 18:44:00,
2013-06-01 12:46:00,56.8,29.5,0.00,WNW,296,0.0,0.0,35,0.00,,---,0.00,VWS V14.00,2013-06-01 18:46:00,
2013-06-01 12:47:00,57.0,29.7,0.00,West,276,0.0,0.0,35,0.00,,---,0.00,VWS V14.00,2013-06-01 18:47:00,
2013-06-01 12:48:00,57.0,29.7,0.00,NW,313,0.0,0.0,35,0.00,,---,0.00,VWS V14.00,2013-06-01 18:48:00,
2013-06-01 12:49:00,57.0,29.7,0.00,WSW,241,0.0,2.2,35,0.00,,---,0.00,VWS V14.00,2013-06-01 18:49:00,
2013-06-01 12:50:00,57.0,29.7,0.00,WSW,240,0.0,0.0,35,0.00,,---,0.00,VWS V14.00,2013-06-01 18:50:00,
2013-06-01 12:51:00,56.8,29.5,0.00,WSW,243,0.0,0.0,35,0.00,,---,0.00,VWS V14.00,2013-06-01 18:51:00,
2013-06-01 12:53:00,57.0,29.7,0.00,SW,221,0.0,0.0,35,0.00,,---,0.00,VWS V14.00,2013-06-01 18:53:00,
2013-06-01 12:55:00,57.0,29.7,0.00,West,261,4.0,4.0,35,0.00,,---,0.00,VWS V14.00,2013-06-01 18:55:00,
2013-06-01 12:56:00,57.0,29.7,0.00,SW,220,0.0,2.7,35,0.00,,---,0.00,VWS V14.00,2013-06-01 18:56:00,
2013-06-01 12:58:00,57.0,29.7,0.00,WSW,238,2.2,2.7,35,0.00,,---,0.00,VWS V14.00,2013-06-01 18:58:00,
2013-06-01 13:00:00,57.0,29.7,0.00,WSW,250,3.6,4.5,35,0.00,,---,0.00,VWS V14.00,2013-06-01 19:00:00,
2013-06-01 13:01:00,56.8,29.5,0.00,WSW,241,0.0,0.0,35,0.00,,---,0.00,VWS V14.00,2013-06-01 19:01:00,
2013-06-01 13:03:00,57.0,29.7,0.00,WSW,241,0.0,0.0,35,0.00,,---,0.00,VWS V14.00,2013-06-01 19:03:00,
2013-06-01 13:05:00,57.0,29.7,0.00,WNW,301,4.0,4.0,35,0.00,,---,0.00,VWS V14.00,2013-06-01 19:05:00,
2013-06-01 13:06:00,57.0,29.7,0.00,West,266,4.9,4.9,35,0.00,,---,0.00,VWS V14.00,2013-06-01 19:06:00,
2013-06-01 13:08:00,57.2,29.8,0.00,WSW,251,3.6,3.6,35,0.00,,---,0.00,VWS V14.00,2013-06-01 19:08:00,
2013-06-01 13:10:00,57.2,29.8,0.00,WSW,250,2.7,3.6,35,0.00,,---,0.00,VWS V14.00,2013-06-01 19:10:00,
2013-06-01 13:11:00,57.2,29.8,0.00,WNW,290,0.0,3.1,35,0.00,,---,0.00,VWS V14.00,2013-06-01 19:11:00,
2013-06-01 13:13:00,57.0,29.7,0.00,WSW,243,2.7,2.7,35,0.00,,---,0.00,VWS V14.00,2013-06-01 19:13:00,
2013-06-01 13:14:00,57.0,29.7,0.00,WSW,243,0.0,2.7,35,0.00,,---,0.00,VWS V14.00,2013-06-01 19:14:00,
2013-06-01 13:15:00,57.0,29.7,0.00,West,261,0.0,0.0,35,0.00,,---,0.00,VWS V14.00,2013-06-01 19:15:00,
2013-06-01 13:16:00,57.2,29.8,0.00,SSW,204,3.1,3.1,35,0.00,,---,0.00,VWS V14.00,2013-06-01 19:16:00,
2013-06-01 13:18:00,57.0,29.7,0.00,SW,225,0.0,0.0,35,0.00,,---,0.00,VWS V14.00,2013-06-01 19:18:00,
2013-06-01 13:19:00,57.0,29.7,0.00,SW,225,0.0,0.0,35,0.00,,---,0.00,VWS V14.00,2013-06-01 19:19:00,
2013-06-01 13:20:00,57.0,29.7,0.00,SW,226,0.0,0.0,35,0.00,,---,0.00,VWS V14.00,2013-06-01 19:20:00,
2013-06-01 13:21:00,57.0,29.7,0.00,ESE,102,3.1,6.7,35,0.00,,---,0.00,VWS V14.00,2013-06-01 19:21:00,
2013-06-01 13:22:00,57.0,29.7,0.00,SE,143,4.9,6.7,35,0.00,,---,0.00,VWS V14.00,2013-06-01 19:22:00,
2013-06-01 13:23:00,57.0,29.7,0.00,SSW,206,0.0,0.0,35,0.00,,---,0.00,VWS V14.00,2013-06-01 19:23:00,
2013-06-01 13:24:00,57.0,29.7,0.00,SSW,206,0.0,0.0,35,0.00,,---,0.00,VWS V14.00,2013-06-01 19:24:00,
2013-06-01 13:25:00,57.0,29.7,0.00,SE,146,3.1,4.0,35,0.00,,---,0.00,VWS V14.00,2013-06-01 19:25:00,
2013-06-01 13:27:00,57.0,29.7,0.00,East,85,3.6,3.6,35,0.00,,---,0.00,VWS V14.00,2013-06-01 19:27:00,
2013-06-01 13:29:00,57.0,29.7,0.00,SE,137,0.0,2.2,35,0.00,,---,0.00,VWS V14.00,2013-06-01 19:29:00,
2013-06-01 13:30:00,56.8,29.5,0.00,SW,226,0.0,3.6,35,0.00,,---,0.00,VWS V14.00,2013-06-01 19:30:00,
2013-06-01 13:32:00,56.8,29.5,0.00,SSW,208,0.0,3.1,35,0.00,,---,0.00,VWS V14.00,2013-06-01 19:32:00,
2013-06-01 13:34:00,56.8,29.5,0.00,South,186,0.0,0.0,35,0.00,,---,0.00,VWS V14.00,2013-06-01 19:34:00,
2013-06-01 13:35:00,56.8,29.5,0.00,SW,222,0.0,0.0,35,0.00,,---,0.00,VWS V14.00,2013-06-01 19:35:00,
2013-06-01 13:37:00,56.8,29.5,0.00,NW,307,0.0,0.0,35,0.00,,---,0.00,VWS V14.00,2013-06-01 19:37:00,
2013-06-01 13:39:00,56.8,29.5,0.00,East,101,0.0,0.0,35,0.00,,---,0.00,VWS V14.00,2013-06-01 19:39:00,
2013-06-01 13:41:00,56.8,29.5,0.00,SSE,168,2.2,3.6,35,0.00,,---,0.00,VWS V14.00,2013-06-01 19:41:00,
2013-06-01 13:42:00,56.8,29.5,0.00,SE,132,3.6,3.6,35,0.00,,---,0.00,VWS V14.00,2013-06-01 19:42:00,
2013-06-01 13:44:00,56.8,29.5,0.00,SSE,150,0.0,2.7,35,0.00,,---,0.00,VWS V14.00,2013-06-01 19:44:00,
2013-06-01 13:46:00,56.8,29.5,0.00,South,176,0.0,2.2,35,0.00,,---,0.00,VWS V14.00,2013-06-01 19:46:00,
2013-06-01 13:47:00,56.8,29.5,0.00,SSE,152,0.0,2.7,35,0.00,,---,0.00,VWS V14.00,2013-06-01 19:47:00,
2013-06-01 13:49:00,56.8,29.5,0.00,South,169,0.0,0.0,35,0.00,,---,0.00,VWS V14.00,2013-06-01 19:49:00,
2013-06-01 13:51:00,56.8,29.5,0.00,South,169,0.0,0.0,35,0.00,,---,0.00,VWS V14.00,2013-06-01 19:51:00,
2013-06-01 13:52:00,56.7,29.3,0.00,East,98,3.6,3.6,35,0.00,,---,0.00,VWS V14.00,2013-06-01 19:52:00,
2013-06-01 13:54:00,56.7,29.3,0.00,East,93,0.0,2.2,35,0.00,,---,0.00,VWS V14.00,2013-06-01 19:54:00,
2013-06-01 13:56:00,56.7,29.3,0.00,East,96,3.1,4.9,35,0.00,,---,0.00,VWS V14.00,2013-06-01 19:56:00,
2013-06-01 13:57:00,56.7,29.3,0.00,East,95,2.2,3.6,35,0.00,,---,0.00,VWS V14.00,2013-06-01 19:57:00,
2013-06-01 13:59:00,56.7,29.3,0.00,West,266,0.0,0.0,35,0.00,,---,0.00,VWS V14.00,2013-06-01 19:59:00,
2013-06-01 14:00:00,56.7,29.3,0.00,West,266,0.0,0.0,35,0.00,,---,0.00,VWS V14.00,2013-06-01 20:00:00,
2013-06-01 14:01:00,56.7,29.3,0.00,ESE,112,4.0,4.0,35,0.00,,---,0.00,VWS V14.00,2013-06-01 20:01:00,
2013-06-01 14:02:00,56.7,29.3,0.00,ESE,118,0.0,0.0,35,0.00,,---,0.00,VWS V14.00,2013-06-01 20:02:00,
2013-06-01 14:04:00,56.7,29.3,0.00,ESE,104,3.1,4.5,35,0.00,,---,0.00,VWS V14.00,2013-06-01 20:04:00,
2013-06-01 14:05:00,56.7,29.3,0.00,ENE,71,3.6,5.4,35,0.00,,---,0.00,VWS V14.00,2013-06-01 20:05:00,
2013-06-01 14:06:00,56.7,29.3,0.00,ENE,67,0.0,0.0,35,0.00,,---,0.00,VWS V14.00,2013-06-01 20:06:00,
2013-06-01 14:07:00,56.8,29.5,0.00,SW,233,0.0,0.0,35,0.00,,---,0.00,VWS V14.00,2013-06-01 20:07:00,
2013-06-01 14:08:00,56.8,29.5,0.00,SW,232,0.0,0.0,35,0.00,,---,0.00,VWS V14.00,2013-06-01 20:08:00,
2013-06-01 14:09:00,56.8,29.5,0.00,SE,144,4.9,5.4,35,0.00,,---,0.00,VWS V14.00,2013-06-01 20:09:00,
2013-06-01 14:10:00,56.8,29.5,0.00,ESE,107,4.0,4.0,35,0.00,,---,0.00,VWS V14.00,2013-06-01 20:10:00,
2013-06-01 14:11:00,56.8,29.5,0.00,ESE,106,3.1,3.1,35,0.00,,---,0.00,VWS V14.00,2013-06-01 20:11:00,
2013-06-01 14:13:00,56.8,29.5,0.00,ESE,104,2.2,3.6,35,0.00,,---,0.00,VWS V14.00,2013-06-01 20:13:00,
2013-06-01 14:14:00,56.8,29.5,0.00,South,184,4.9,4.9,35,0.00,,---,0.00,VWS V14.00,2013-06-01 20:14:00,
2013-06-01 14:15:00,56.8,29.5,0.00,NNW,338,0.0,4.9,35,0.00,,---,0.00,VWS V14.00,2013-06-01 20:15:00,
2013-06-01 14:17:00,56.8,29.5,0.00,ESE,108,2.2,4.9,35,0.00,,---,0.00,VWS V14.00,2013-06-01 20:17:00,
2013-06-01 14:18:00,57.0,29.7,0.00,ESE,122,2.7,2.7,35,0.00,,---,0.00,VWS V14.00,2013-06-01 20:18:00,
2013-06-01 14:20:00,57.0,29.7,0.00,NW,305,3.1,3.1,35,0.00,,---,0.00,VWS V14.00,2013-06-01 20:20:00,
2013-06-01 14:21:00,57.0,29.7,0.00,SW,216,0.0,3.1,35,0.00,,---,0.00,VWS V14.00,2013-06-01 20:21:00,
2013-06-01 14:22:00,57.2,29.8,0.00,SSW,202,0.0,0.0,35,0.00,,---,0.00,VWS V14.00,2013-06-01 20:22:00,
2013-06-01 14:23:00,57.2,29.8,0.00,East,91,3.1,4.0,35,0.00,,---,0.00,VWS V14.00,2013-06-01 20:23:00,
2013-06-01 14:25:00,57.4,30.0,0.00,East,97,4.9,4.9,35,0.00,,---,0.00,VWS V14.00,2013-06-01 20:25:00,
2013-06-01 14:26:00,57.4,30.0,0.00,ESE,102,0.0,2.2,35,0.00,,---,0.00,VWS V14.00,2013-06-01 20:26:00,
2013-06-01 14:27:00,57.4,30.0,0.00,SE,131,4.0,4.0,35,0.00,,---,0.00,VWS V14.00,2013-06-01 20:27:00,
2013-06-01 14:28:00,57.6,30.1,0.00,NE,46,3.1,3.1,35,0.00,,---,0.00,VWS V14.00,2013-06-01 20:28:00,
2013-06-01 14:30:00,57.6,30.1,0.00,SW,226,0.0,0.0,35,0.00,,---,0.00,VWS V14.00,2013-06-01 20:30:00,
2013-06-01 14:31:00,57.6,30.1,0.00,West,265,0.0,0.0,35,0.00,,---,0.00,VWS V14.00,2013-06-01 20:31:00,
2013-06-01 14:32:00,57.6,30.1,0.00,West,277,0.0,0.0,35,0.00,,---,0.00,VWS V14.00,2013-06-01 20:32:00,
2013-06-01 14:33:00,57.6,30.1,0.00,ESE,105,3.6,3.6,35,0.00,,---,0.00,VWS V14.00,2013-06-01 20:33:00,
2013-06-01 14:34:00,57.6,30.1,0.00,ESE,106,2.2,3.6,35,0.00,,---,0.00,VWS V14.00,2013-06-01 20:34:00,
2013-06-01 14:35:00,57.6,30.1,0.00,SE,141,4.0,5.4,35,0.00,,---,0.00,VWS V14.00,2013-06-01 20:35:00,
2013-06-01 14:36:00,57.7,30.3,0.00,South,181,2.2,2.7,35,0.00,,---,0.00,VWS V14.00,2013-06-01 20:36:00,
2013-06-01 14:37:00,57.7,30.3,0.00,SE,133,5.4,6.3,35,0.00,,---,0.00,VWS V14.00,2013-06-01 20:37:00,
2013-06-01 14:38:00,57.7,30.3,0.00,SSW,211,0.0,3.6,35,0.00,,---,0.00,VWS V14.00,2013-06-01 20:38:00,
2013-06-01 14:39:00,57.7,30.3,0.00,ESE,114,3.6,3.6,35,0.00,,---,0.00,VWS V14.00,2013-06-01 20:39:00,
2013-06-01 14:40:00,57.9,30.5,0.00,ESE,107,3.6,3.6,35,0.00,,---,0.00,VWS V14.00,2013-06-01 20:40:00,
2013-06-01 14:41:00,57.9,30.5,0.00,SSE,151,0.0,3.6,35,0.00,,---,0.00,VWS V14.00,2013-06-01 20:41:00,
2013-06-01 14:42:00,57.9,30.5,0.00,SE,143,5.4,6.3,35,0.00,,---,0.00,VWS V14.00,2013-06-01 20:42:00,
2013-06-01 14:43:00,58.1,30.6,0.00,SSW,201,0.0,5.4,35,0.00,,---,0.00,VWS V14.00,2013-06-01 20:43:00,
2013-06-01 14:44:00,58.1,30.6,0.00,SE,146,0.0,0.0,35,0.00,,---,0.00,VWS V14.00,2013-06-01 20:44:00,
2013-06-01 14:45:00,58.3,30.8,0.00,South,189,0.0,3.6,35,0.00,,---,0.00,VWS V14.00,2013-06-01 20:45:00,
2013-06-01 14:46:00,58.3,30.8,0.00,SE,144,2.2,2.2,35,0.00,,---,0.00,VWS V14.00,2013-06-01 20:46:00,
2013-06-01 14:47:00,58.5,30.9,0.00,SE,144,4.0,4.9,35,0.00,,---,0.00,VWS V14.00,2013-06-01 20:47:00,
2013-06-01 14:48:00,58.5,30.9,0.00,SE,145,0.0,2.2,35,0.00,,---,0.00,VWS V14.00,2013-06-01 20:48:00,
2013-06-01 14:49:00,58.3,30.8,0.00,SE,145,0.0,0.0,35,0.00,,---,0.00,VWS V14.00,2013-06-01 20:49:00,
2013-06-01 14:50:00,58.5,30.9,0.00,ESE,114,4.0,5.8,35,0.00,,---,0.00,VWS V14.00,2013-06-01 20:50:00,
2013-06-01 14:51:00,58.5,30.9,0.00,South,178,0.0,3.1,35,0.00,,---,0.00,VWS V14.00,2013-06-01 20:51:00,
2013-06-01 14:52:00,58.5,30.9,0.00,SSE,154,0.0,0.0,35,0.00,,---,0.00,VWS V14.00,2013-06-01 20:52:00,
2013-06-01 14:53:00,58.6,31.1,0.00,ESE,111,3.6,4.0,35,0.00,,---,0.00,VWS V14.00,2013-06-01 20:53:00,
2013-06-01 14:54:00,58.6,31.1,0.00,East,98,3.1,3.6,35,0.00,,---,0.00,VWS V14.00,2013-06-01 20:54:00,
2013-06-01 14:55:00,58.8,31.2,0.00,East,85,0.0,3.6,35,0.00,,---,0.00,VWS V14.00,2013-06-01 20:55:00,
2013-06-01 14:56:00,58.8,31.2,0.00,SSE,150,0.0,0.0,35,0.00,,---,0.00,VWS V14.00,2013-06-01 20:56:00,
2013-06-01 14:58:00,59.0,30.7,0.00,South,190,0.0,3.1,34,0.00,,---,0.00,VWS V14.00,2013-06-01 20:58:00,
2013-06-01 14:59:00,59.2,31.6,0.00,SSW,209,0.0,2.2,35,0.00,,---,0.00,VWS V14.00,2013-06-01 20:59:00,
2013-06-01 15:01:00,59.4,31.7,0.00,WNW,293,0.0,0.0,35,0.00,,---,0.00,VWS V14.00,2013-06-01 21:01:00,
2013-06-01 15:03:00,59.5,31.9,0.00,SSW,208,0.0,2.2,35,0.00,,---,0.00,VWS V14.00,2013-06-01 21:03:00,
2013-06-01 15:04:00,59.7,31.3,0.00,SW,236,3.1,3.1,34,0.00,,---,0.00,VWS V14.00,2013-06-01 21:04:00,
2013-06-01 15:06:00,59.7,31.3,0.00,SW,235,0.0,2.2,34,0.00,,---,0.00,VWS V14.00,2013-06-01 21:06:00,
2013-06-01 15:08:00,59.7,31.3,0.00,WSW,244,0.0,2.2,34,0.00,,---,0.00,VWS V14.00,2013-06-01 21:08:00,
2013-06-01 15:09:00,59.7,31.3,0.00,WSW,246,2.7,2.7,34,0.00,,---,0.00,VWS V14.00,2013-06-01 21:09:00,
2013-06-01 15:11:00,59.7,31.3,0.00,SW,220,0.0,0.0,34,0.00,,---,0.00,VWS V14.00,2013-06-01 21:11:00,
2013-06-01 15:13:00,59.9,31.5,0.00,WNW,290,0.0,3.1,34,0.00,,---,0.00,VWS V14.00,2013-06-01 21:13:00,
2013-06-01 15:14:00,60.1,31.6,0.00,NW,310,2.2,3.6,34,0.00,,---,0.00,VWS V14.00,2013-06-01 21:14:00,
2013-06-01 15:15:00,60.1,31.6,0.00,SSE,167,3.1,3.6,34,0.00,,---,0.00,VWS V14.00,2013-06-01 21:15:00,
2013-06-01 15:16:00,60.3,31.8,0.00,SW,221,0.0,0.0,34,0.00,,---,0.00,VWS V14.00,2013-06-01 21:16:00,
2013-06-01 15:17:00,60.3,31.8,0.00,SW,221,0.0,0.0,34,0.00,,---,0.00,VWS V14.00,2013-06-01 21:17:00,
2013-06-01 15:18:00,60.3,31.8,0.00,SW,215,2.7,3.1,34,0.00,,---,0.00,VWS V14.00,2013-06-01 21:18:00,
2013-06-01 15:19:00,60.3,31.8,0.00,SW,224,0.0,2.7,34,0.00,,---,0.00,VWS V14.00,2013-06-01 21:19:00,
2013-06-01 15:20:00,60.3,31.8,0.00,WSW,244,2.7,2.7,34,0.00,,---,0.00,VWS V14.00,2013-06-01 21:20:00,
2013-06-01 15:21:00,60.4,32.0,0.00,SW,214,0.0,2.7,34,0.00,,---,0.00,VWS V14.00,2013-06-01 21:21:00,
2013-06-01 15:22:00,60.4,32.0,0.00,SW,215,0.0,2.7,34,0.00,,---,0.00,VWS V14.00,2013-06-01 21:22:00,
2013-06-01 15:23:00,60.4,32.0,0.00,SW,233,4.5,4.5,34,0.00,,---,0.00,VWS V14.00,2013-06-01 21:23:00,
2013-06-01 15:24:00,60.4,32.0,0.00,East,96,4.0,4.0,34,0.00,,---,0.00,VWS V14.00,2013-06-01 21:24:00,
2013-06-01 15:25:00,60.4,32.0,0.00,ESE,112,4.0,4.0,34,0.00,,---,0.00,VWS V14.00,2013-06-01 21:25:00,
2013-06-01 15:27:00,60.6,32.1,0.00,SSE,166,0.0,5.4,34,0.00,,---,0.00,VWS V14.00,2013-06-01 21:27:00,
2013-06-01 15:29:00,60.8,32.3,0.00,WSW,238,3.1,3.6,34,0.00,,---,0.00,VWS V14.00,2013-06-01 21:29:00,
2013-06-01 15:30:00,60.8,32.3,0.00,SW,234,0.0,3.6,34,0.00,,---,0.00,VWS V14.00,2013-06-01 21:30:00,
2013-06-01 15:32:00,61.0,32.4,0.00,SE,134,0.0,0.0,34,0.00,,---,0.00,VWS V14.00,2013-06-01 21:32:00,
2013-06-01 15:34:00,61.2,32.6,0.00,SE,130,2.2,2.2,34,0.00,,---,0.00,VWS V14.00,2013-06-01 21:34:00,
2013-06-01 15:35:00,61.3,32.8,0.00,WSW,254,0.0,4.0,34,0.00,,---,0.00,VWS V14.00,2013-06-01 21:35:00,
2013-06-01 15:37:00,61.5,32.9,0.00,WNW,296,3.6,4.9,34,0.00,,---,0.00,VWS V14.00,2013-06-01 21:37:00,
2013-06-01 15:39:00,61.7,33.1,0.00,West,273,0.0,2.7,34,0.00,,---,0.00,VWS V14.00,2013-06-01 21:39:00,
2013-06-01 15:40:00,61.9,33.2,0.00,West,273,0.0,0.0,34,0.00,,---,0.00,VWS V14.00,2013-06-01 21:40:00,
2013-06-01 15:42:00,62.1,33.4,0.00,SW,229,4.5,4.5,34,0.00,,---,0.00,VWS V14.00,2013-06-01 21:42:00,
2013-06-01 15:44:00,62.2,33.5,0.00,WNW,286,0.0,3.1,34,0.00,,---,0.00,VWS V14.00,2013-06-01 21:44:00,
2013-06-01 15:45:00,62.4,33.7,0.00,SSE,153,3.1,3.1,34,0.00,,---,0.00,VWS V14.00,2013-06-01 21:45:00,
2013-06-01 15:46:00,62.4,33.7,0.00,South,172,0.0,3.1,34,0.00,,---,0.00,VWS V14.00,2013-06-01 21:46:00,
2013-06-01 15:47:00,62.4,33.7,0.00,South,172,0.0,0.0,34,0.00,,---,0.00,VWS V14.00,2013-06-01 21:47:00,
2013-06-01 15:49:00,62.6,33.1,0.00,East,101,2.7,2.7,33,0.00,,---,0.00,VWS V14.00,2013-06-01 21:49:00,
2013-06-01 15:50:00,62.8,33.3,0.00,SE,136,3.6,3.6,33,0.00,,---,0.00,VWS V14.00,2013-06-01 21:50:00,
2013-06-01 15:51:00,62.8,33.3,0.00,SW,234,2.7,4.0,33,0.00,,---,0.00,VWS V14.00,2013-06-01 21:51:00,
2013-06-01 15:52:00,62.8,33.3,0.00,South,170,2.2,2.2,33,0.00,,---,0.00,VWS V14.00,2013-06-01 21:52:00,
2013-06-01 15:54:00,63.0,33.4,0.00,South,172,0.0,3.1,33,0.00,,---,0.00,VWS V14.00,2013-06-01 21:54:00,
2013-06-01 15:55:00,63.0,33.4,0.00,SE,139,2.7,2.7,33,0.00,,---,0.00,VWS V14.00,2013-06-01 21:55:00,
2013-06-01 15:56:00,63.1,33.6,0.00,SE,128,2.2,3.1,33,0.00,,---,0.00,VWS V14.00,2013-06-01 21:56:00,
2013-06-01 15:57:00,63.1,33.6,0.00,SW,232,2.7,2.7,33,0.00,,---,0.00,VWS V14.00,2013-06-01 21:57:00,
2013-06-01 15:58:00,63.1,33.6,0.00,SSE,167,4.0,4.0,33,0.00,,---,0.00,VWS V14.00,2013-06-01 21:58:00,
2013-06-01 15:59:00,63.0,33.4,0.00,SSW,207,0.0,0.0,33,0.00,,---,0.00,VWS V14.00,2013-06-01 21:59:00,
2013-06-01 16:00:00,63.0,33.4,0.00,SSE,157,3.1,3.1,33,0.00,,---,0.00,VWS V14.00,2013-06-01 22:00:00,
2013-06-01 16:02:00,63.0,33.4,0.00,ESE,123,0.0,4.0,33,0.00,,---,0.00,VWS V14.00,2013-06-01 22:02:00,
2013-06-01 16:03:00,63.0,32.7,0.00,South,187,0.0,0.0,32,0.00,,---,0.00,VWS V14.00,2013-06-01 22:03:00,
2013-06-01 16:04:00,63.0,32.7,0.00,SE,127,2.7,4.5,32,0.00,,---,0.00,VWS V14.00,2013-06-01 22:04:00,
2013-06-01 16:05:00,62.8,32.5,0.00,SE,127,0.0,2.7,32,0.00,,---,0.00,VWS V14.00,2013-06-01 22:05:00,
2013-06-01 16:07:00,62.6,32.3,0.00,WSW,239,0.0,0.0,32,0.00,,---,0.00,VWS V14.00,2013-06-01 22:07:00,
2013-06-01 16:08:00,62.6,32.3,0.00,SE,146,0.0,0.0,32,0.00,,---,0.00,VWS V14.00,2013-06-01 22:08:00,
2013-06-01 16:09:00,62.6,32.3,0.00,ESE,123,3.1,3.6,32,0.00,,---,0.00,VWS V14.00,2013-06-01 22:09:00,
2013-06-01 16:10:00,62.6,32.3,0.00,SW,232,0.0,3.1,32,0.00,,---,0.00,VWS V14.00,2013-06-01 22:10:00,
2013-06-01 16:12:00,62.6,32.3,0.00,SE,124,3.1,3.1,32,0.00,,---,0.00,VWS V14.00,2013-06-01 22:12:00,
2013-06-01 16:13:00,62.6,32.3,0.00,SW,215,0.0,3.6,32,0.00,,---,0.00,VWS V14.00,2013-06-01 22:13:00,
2013-06-01 16:15:00,62.6,32.3,0.00,SSW,197,3.1,3.6,32,0.00,,---,0.00,VWS V14.00,2013-06-01 22:15:00,
2013-06-01 16:16:00,62.6,32.3,0.00,East,80,2.7,4.9,32,0.00,,---,0.00,VWS V14.00,2013-06-01 22:16:00,
2013-06-01 16:17:00,62.6,32.3,0.00,West,264,0.0,0.0,32,0.00,,---,0.00,VWS V14.00,2013-06-01 22:17:00,
2013-06-01 16:18:00,62.6,32.3,0.00,West,265,0.0,0.0,32,0.00,,---,0.00,VWS V14.00,2013-06-01 22:18:00,
2013-06-01 16:20:00,62.6,32.3,0.00,WSW,239,0.0,3.1,32,0.00,,---,0.00,VWS V14.00,2013-06-01 22:20:00,
2013-06-01 16:21:00,62.6,32.3,0.00,SW,214,0.0,2.7,32,0.00,,---,0.00,VWS V14.00,2013-06-01 22:21:00,
2013-06-01 16:23:00,62.6,32.3,0.00,ESE,112,0.0,4.9,32,0.00,,---,0.00,VWS V14.00,2013-06-01 22:23:00,
2013-06-01 16:25:00,62.8,32.5,0.00,ESE,104,2.7,5.8,32,0.00,,---,0.00,VWS V14.00,2013-06-01 22:25:00,
2013-06-01 16:26:00,62.8,32.5,0.00,South,172,0.0,2.2,32,0.00,,---,0.00,VWS V14.00,2013-06-01 22:26:00,
2013-06-01 16:28:00,62.8,32.5,0.00,ESE,105,3.6,5.8,32,0.00,,---,0.00,VWS V14.00,2013-06-01 22:28:00,
2013-06-01 16:30:00,62.8,32.5,0.00,SW,219,0.0,2.7,32,0.00,,---,0.00,VWS V14.00,2013-06-01 22:30:00,
2013-06-01 16:31:00,63.0,32.7,0.00,NNW,332,2.7,3.6,32,0.00,,---,0.00,VWS V14.00,2013-06-01 22:31:00,
2013-06-01 16:33:00,63.0,32.7,0.00,WSW,257,3.1,3.1,32,0.00,,---,0.00,VWS V14.00,2013-06-01 22:33:00,
2013-06-01 16:34:00,63.0,32.7,0.00,WNW,302,3.1,3.6,32,0.00,,---,0.00,VWS V14.00,2013-06-01 22:34:00,
2013-06-01 16:35:00,63.0,32.7,0.00,WSW,248,0.0,3.1,32,0.00,,---,0.00,VWS V14.00,2013-06-01 22:35:00,
2013-06-01 16:36:00,63.0,31.9,0.00,SW,218,0.0,0.0,31,0.00,,---,0.00,VWS V14.00,2013-06-01 22:36:00,
2013-06-01 16:38:00,62.8,32.5,0.00,SSE,157,3.1,3.1,32,0.00,,---,0.00,VWS V14.00,2013-06-01 22:38:00,
2013-06-01 16:39:00,62.8,32.5,0.00,WNW,289,3.1,3.1,32,0.00,,---,0.00,VWS V14.00,2013-06-01 22:39:00,
2013-06-01 16:40:00,62.8,32.5,0.00,SE,127,2.2,3.1,32,0.00,,---,0.00,VWS V14.00,2013-06-01 22:40:00,
2013-06-01 16:41:00,62.8,32.5,0.00,SSW,202,0.0,2.7,32,0.00,,---,0.00,VWS V14.00,2013-06-01 22:41:00,
2013-06-01 16:43:00,62.8,32.5,0.00,SSE,147,0.0,0.0,32,0.00,,---,0.00,VWS V14.00,2013-06-01 22:43:00,
2013-06-01 16:45:00,62.6,31.6,0.00,WSW,251,0.0,2.7,31,0.00,,---,0.00,VWS V14.00,2013-06-01 22:45:00,
2013-06-01 16:46:00,62.6,31.6,0.00,SSW,210,0.0,2.2,31,0.00,,---,0.00,VWS V14.00,2013-06-01 22:46:00,
2013-06-01 16:48:00,62.4,32.2,0.00,West,261,0.0,0.0,32,0.00,,---,0.00,VWS V14.00,2013-06-01 22:48:00,
2013-06-01 16:49:00,62.4,32.2,0.00,WNW,292,0.0,2.2,32,0.00,,---,0.00,VWS V14.00,2013-06-01 22:49:00,
2013-06-01 16:50:00,62.6,32.3,0.00,West,261,2.7,2.7,32,0.00,,---,0.00,VWS V14.00,2013-06-01 22:50:00,
2013-06-01 16:51:00,62.6,32.3,0.00,WSW,243,0.0,2.7,32,0.00,,---,0.00,VWS V14.00,2013-06-01 22:51:00,
2013-06-01 16:53:00,62.6,32.3,0.00,West,267,2.2,4.0,32,0.00,,---,0.00,VWS V14.00,2013-06-01 22:53:00,
2013-06-01 16:54:00,62.6,32.3,0.00,WSW,238,2.7,2.7,32,0.00,,---,0.00,VWS V14.00,2013-06-01 22:54:00,
2013-06-01 16:55:00,62.6,32.3,0.00,NW,314,2.7,3.1,32,0.00,,---,0.00,VWS V14.00,2013-06-01 22:55:00,
2013-06-01 16:56:00,62.4,32.2,0.00,WSW,251,0.0,2.7,32,0.00,,---,0.00,VWS V14.00,2013-06-01 22:56:00,
2013-06-01 16:59:00,62.2,32.0,0.00,NW,314,0.0,0.0,32,0.00,,---,0.00,VWS V14.00,2013-06-01 22:59:00,
2013-06-01 17:00:00,62.2,32.0,0.00,SSW,204,0.0,2.7,32,0.00,,---,0.00,VWS V14.00,2013-06-01 23:00:00,
2013-06-01 17:01:00,62.2,32.0,0.00,WNW,285,0.0,0.0,32,0.00,,---,0.00,VWS V14.00,2013-06-01 23:01:00,
2013-06-01 17:04:00,62.2,32.0,0.00,West,277,2.7,3.1,32,0.00,,---,0.00,VWS V14.00,2013-06-01 23:04:00,
2013-06-01 17:05:00,62.2,32.0,0.00,WSW,250,2.7,2.7,32,0.00,,---,0.00,VWS V14.00,2013-06-01 23:05:00,
2013-06-01 17:07:00,62.2,32.0,0.00,WSW,248,3.1,3.6,32,0.00,,---,0.00,VWS V14.00,2013-06-01 23:07:00,
2013-06-01 17:09:00,62.1,31.9,0.00,West,275,3.1,3.1,32,0.00,,---,0.00,VWS V14.00,2013-06-01 23:09:00,
2013-06-01 17:10:00,61.9,31.7,0.00,WSW,248,0.0,0.0,32,0.00,,---,0.00,VWS V14.00,2013-06-01 23:10:00,
2013-06-01 17:11:00,61.9,31.7,0.00,West,273,3.1,3.6,32,0.00,,---,0.00,VWS V14.00,2013-06-01 23:11:00,
2013-06-01 17:12:00,61.7,31.6,0.00,WSW,257,0.0,0.0,32,0.00,,---,0.00,VWS V14.00,2013-06-01 23:12:00,
2013-06-01 17:14:00,61.9,32.5,0.00,WSW,258,0.0,0.0,33,0.00,,---,0.00,VWS V14.00,2013-06-01 23:14:00,
2013-06-01 17:15:00,61.9,31.7,0.00,SW,216,0.0,0.0,32,0.00,,---,0.00,VWS V14.00,2013-06-01 23:15:00,
2013-06-01 17:16:00,61.7,31.6,0.00,SW,216,0.0,0.0,32,0.00,,---,0.00,VWS V14.00,2013-06-01 23:16:00,
2013-06-01 17:17:00,61.7,31.6,0.00,SSW,211,0.0,0.0,32,0.00,,---,0.00,VWS V14.00,2013-06-01 23:17:00,
2013-06-01 17:19:00,61.7,31.6,0.00,East,82,2.2,2.7,32,0.00,,---,0.00,VWS V14.00,2013-06-01 23:19:00,
2013-06-01 17:20:00,61.7,31.6,0.00,East,82,0.0,2.7,32,0.00,,---,0.00,VWS V14.00,2013-06-01 23:20:00,
2013-06-01 17:21:00,61.7,32.3,0.00,West,271,2.2,2.7,33,0.00,,---,0.00,VWS V14.00,2013-06-01 23:21:00,
2013-06-01 17:22:00,61.7,31.6,0.00,SW,235,0.0,0.0,32,0.00,,---,0.00,VWS V14.00,2013-06-01 23:22:00,
2013-06-01 17:25:00,61.5,31.4,0.00,East,91,7.6,7.6,32,0.00,,---,0.00,VWS V14.00,2013-06-01 23:25:00,
2013-06-01 17:26:00,61.3,31.2,0.00,SSE,147,6.3,7.6,32,0.00,,---,0.00,VWS V14.00,2013-06-01 23:26:00,
2013-06-01 17:27:00,61.3,32.0,0.00,SE,129,3.6,3.6,33,0.00,,---,0.00,VWS V14.00,2013-06-01 23:27:00,
2013-06-01 17:30:00,61.2,31.9,0.00,East,90,4.0,6.3,33,0.00,,---,0.00,VWS V14.00,2013-06-01 23:30:00,
2013-06-01 17:31:00,61.2,31.9,0.00,ENE,74,0.0,2.7,33,0.00,,---,0.00,VWS V14.00,2013-06-01 23:31:00,
2013-06-01 17:32:00,61.2,31.9,0.00,SE,125,3.1,3.1,33,0.00,,---,0.00,VWS V14.00,2013-06-01 23:32:00,
2013-06-01 17:35:00,61.2,31.9,0.00,SSE,150,2.7,3.1,33,0.00,,---,0.00,VWS V14.00,2013-06-01 23:35:00,
2013-06-01 17:36:00,61.2,31.9,0.00,SW,218,0.0,0.0,33,0.00,,---,0.00,VWS V14.00,2013-06-01 23:36:00,
2013-06-01 17:37:00,61.2,31.9,0.00,SSE,155,2.2,2.7,33,0.00,,---,0.00,VWS V14.00,2013-06-01 23:37:00,
2013-06-01 17:40:00,61.2,31.9,0.00,ESE,121,2.2,2.2,33,0.00,,---,0.00,VWS V14.00,2013-06-01 23:40:00,
2013-06-01 17:41:00,61.2,32.6,0.00,SSE,151,3.1,3.1,34,0.00,,---,0.00,VWS V14.00,2013-06-01 23:41:00,
2013-06-01 17:42:00,61.2,31.9,0.00,SSW,195,0.0,3.1,33,0.00,,---,0.00,VWS V14.00,2013-06-01 23:42:00,
2013-06-01 17:45:00,61.0,32.4,0.00,SSE,151,4.9,4.9,34,0.00,,---,0.00,VWS V14.00,2013-06-01 23:45:00,
2013-06-01 17:46:00,61.0,32.4,0.00,WSW,243,0.0,4.9,34,0.00,,---,0.00,VWS V14.00,2013-06-01 23:46:00,
2013-06-01 17:47:00,61.0,32.4,0.00,SSW,195,2.2,4.9,34,0.00,,---,0.00,VWS V14.00,2013-06-01 23:47:00,
2013-06-01 17:50:00,61.0,32.4,0.00,WSW,247,0.0,0.0,34,0.00,,---,0.00,VWS V14.00,2013-06-01 23:50:00,
2013-06-01 17:51:00,61.0,32.4,0.00,SW,222,0.0,0.0,34,0.00,,---,0.00,VWS V14.00,2013-06-01 23:51:00,
2013-06-01 17:52:00,60.8,31.5,0.00,SSW,199,0.0,0.0,33,0.00,,---,0.00,VWS V14.00,2013-06-01 23:52:00,
2013-06-01 17:55:00,60.6,32.1,0.00,WSW,252,0.0,0.0,34,0.00,,---,0.00,VWS V14.00,2013-06-01 23:55:00,
2013-06-01 17:56:00,60.6,32.1,0.00,NW,313,3.1,3.1,34,0.00,,---,0.00,VWS V14.00,2013-06-01 23:56:00,
2013-06-01 17:57:00,60.6,32.1,0.00,WNW,291,0.0,2.2,34,0.00,,---,0.00,VWS V14.00,2013-06-01 23:57:00,
2013-06-01 18:00:00,60.6,32.1,0.00,SW,236,0.0,0.0,34,0.00,,---,0.00,VWS V14.00,2013-06-02 00:00:00,
2013-06-01 18:01:00,60.6,32.1,0.00,WSW,241,0.0,0.0,34,0.00,,---,0.00,VWS V14.00,2013-06-02 00:01:00,
2013-06-01 18:02:00,60.6,32.1,0.00,WSW,241,0.0,0.0,34,0.00,,---,0.00,VWS V14.00,2013-06-02 00:02:00,
2013-06-01 18:05:00,60.4,32.0,0.00,WSW,243,0.0,0.0,34,0.00,,---,0.00,VWS V14.00,2013-06-02 00:05:00,
2013-06-01 18:06:00,60.4,32.0,0.00,SW,236,2.7,2.7,34,0.00,,---,0.00,VWS V14.00,2013-06-02 00:06:00,
2013-06-01 18:07:00,60.3,31.8,0.00,WSW,242,0.0,0.0,34,0.00,,---,0.00,VWS V14.00,2013-06-02 00:07:00,
2013-06-01 18:08:00,60.3,31.8,0.00,WNW,303,0.0,3.1,34,0.00,,---,0.00,VWS V14.00,2013-06-02 00:08:00,
2013-06-01 18:11:00,60.1,31.6,0.00,NNW,330,0.0,3.1,34,0.00,,---,0.00,VWS V14.00,2013-06-02 00:11:00,
2013-06-01 18:12:00,60.1,31.6,0.00,WSW,251,0.0,2.7,34,0.00,,---,0.00,VWS V14.00,2013-06-02 00:12:00,
2013-06-01 18:13:00,60.1,31.6,0.00,West,280,0.0,0.0,34,0.00,,---,0.00,VWS V14.00,2013-06-02 00:13:00,
2013-06-01 18:16:00,59.9,31.5,0.00,WNW,289,2.7,3.1,34,0.00,,---,0.00,VWS V14.00,2013-06-02 00:16:00,
2013-06-01 18:17:00,59.9,31.5,0.00,West,266,2.2,2.7,34,0.00,,---,0.00,VWS V14.00,2013-06-02 00:17:00,
2013-06-01 18:18:00,59.7,31.3,0.00,SSW,212,0.0,2.7,34,0.00,,---,0.00,VWS V14.00,2013-06-02 00:18:00,
2013-06-01 18:21:00,59.5,31.2,0.00,West,277,0.0,0.0,34,0.00,,---,0.00,VWS V14.00,2013-06-02 00:21:00,
2013-06-01 18:22:00,59.5,31.2,0.00,WSW,256,0.0,0.0,34,0.00,,---,0.00,VWS V14.00,2013-06-02 00:22:00,
2013-06-01 18:23:00,59.5,31.2,0.00,WSW,256,0.0,2.2,34,0.00,,---,0.00,VWS V14.00,2013-06-02 00:23:00,
2013-06-01 18:26:00,59.4,31.0,0.00,WSW,253,0.0,0.0,34,0.00,,---,0.00,VWS V14.00,2013-06-02 00:26:00,
2013-06-01 18:27:00,59.4,31.0,0.00,WSW,253,0.0,0.0,34,0.00,,---,0.00,VWS V14.00,2013-06-02 00:27:00,
2013-06-01 18:28:00,59.4,31.0,0.00,West,259,0.0,0.0,34,0.00,,---,0.00,VWS V14.00,2013-06-02 00:28:00,
2013-06-01 18:31:00,59.2,30.9,0.00,SSE,167,0.0,0.0,34,0.00,,---,0.00,VWS V14.00,2013-06-02 00:31:00,
2013-06-01 18:32:00,59.2,30.9,0.00,SSE,167,0.0,0.0,34,0.00,,---,0.00,VWS V14.00,2013-06-02 00:32:00,
2013-06-01 18:33:00,59.2,30.9,0.00,ESE,106,3.6,4.5,34,0.00,,---,0.00,VWS V14.00,2013-06-02 00:33:00,
2013-06-01 18:36:00,59.0,30.7,0.00,SW,227,0.0,0.0,34,0.00,,---,0.00,VWS V14.00,2013-06-02 00:36:00,
2013-06-01 18:37:00,58.8,30.5,0.00,SW,227,0.0,0.0,34,0.00,,---,0.00,VWS V14.00,2013-06-02 00:37:00,
2013-06-01 18:38:00,58.8,30.5,0.00,SE,138,3.1,3.1,34,0.00,,---,0.00,VWS V14.00,2013-06-02 00:38:00,
2013-06-01 18:41:00,58.6,30.4,0.00,SW,225,2.2,3.1,34,0.00,,---,0.00,VWS V14.00,2013-06-02 00:41:00,
2013-06-01 18:42:00,58.6,30.4,0.00,SW,225,0.0,0.0,34,0.00,,---,0.00,VWS V14.00,2013-06-02 00:42:00,
2013-06-01 18:43:00,58.5,30.9,0.00,SW,226,0.0,0.0,35,0.00,,---,0.00,VWS V14.00,2013-06-02 00:43:00,
2013-06-01 18:47:00,58.5,30.9,0.00,West,279,0.0,0.0,35,0.00,,---,0.00,VWS V14.00,2013-06-02 00:47:00,
2013-06-01 18:48:00,58.3,30.8,0.00,West,260,0.0,0.0,35,0.00,,---,0.00,VWS V14.00,2013-06-02 00:48:00,
2013-06-01 18:52:00,58.1,30.6,0.00,WSW,253,0.0,0.0,35,0.00,,---,0.00,VWS V14.00,2013-06-02 00:52:00,
2013-06-01 18:53:00,58.1,29.9,0.00,WSW,253,0.0,0.0,34,0.00,,---,0.00,VWS V14.00,2013-06-02 00:53:00,
2013-06-01 18:57:00,57.9,30.5,0.00,WNW,299,2.7,2.7,35,0.00,,---,0.00,VWS V14.00,2013-06-02 00:57:00,
2013-06-01 18:58:00,57.7,29.6,0.00,NW,307,2.7,3.1,34,0.00,,---,0.00,VWS V14.00,2013-06-02 00:58:00,
2013-06-01 19:02:00,57.6,30.1,0.00,West,275,0.0,0.0,35,0.00,,---,0.00,VWS V14.00,2013-06-02 01:02:00,
2013-06-01 19:03:00,57.6,29.4,0.00,West,275,0.0,0.0,34,0.00,,---,0.00,VWS V14.00,2013-06-02 01:03:00,
2013-06-01 19:07:00,57.4,30.0,0.00,West,274,0.0,0.0,35,0.00,,---,0.00,VWS V14.00,2013-06-02 01:07:00,
2013-06-01 19:08:00,57.4,30.0,0.00,West,274,0.0,0.0,35,0.00,,---,0.00,VWS V14.00,2013-06-02 01:08:00,
2013-06-01 19:09:00,57.2,29.8,0.00,West,274,0.0,0.0,35,0.00,,---,0.00,VWS V14.00,2013-06-02 01:09:00,
2013-06-01 19:12:00,57.0,29.7,0.00,West,272,0.0,0.0,35,0.00,,---,0.00,VWS V14.00,2013-06-02 01:12:00,
2013-06-01 19:13:00,57.0,29.7,0.00,SE,134,2.7,3.6,35,0.00,,---,0.00,VWS V14.00,2013-06-02 01:13:00,
2013-06-01 19:14:00,57.0,29.7,0.00,SE,134,0.0,3.6,35,0.00,,---,0.00,VWS V14.00,2013-06-02 01:14:00,
2013-06-01 19:17:00,56.8,29.5,0.00,SE,135,0.0,0.0,35,0.00,,---,0.00,VWS V14.00,2013-06-02 01:17:00,
2013-06-01 19:18:00,56.8,29.5,0.00,SSW,193,0.0,0.0,35,0.00,,---,0.00,VWS V14.00,2013-06-02 01:18:00,
2013-06-01 19:19:00,56.8,29.5,0.00,SSW,193,0.0,0.0,35,0.00,,---,0.00,VWS V14.00,2013-06-02 01:19:00,
2013-06-01 19:22:00,56.7,29.3,0.00,SSW,204,0.0,2.2,35,0.00,,---,0.00,VWS V14.00,2013-06-02 01:22:00,
2013-06-01 19:23:00,56.5,29.2,0.00,WSW,257,0.0,0.0,35,0.00,,---,0.00,VWS V14.00,2013-06-02 01:23:00,
2013-06-01 19:24:00,56.5,29.2,0.00,SE,124,3.1,3.1,35,0.00,,---,0.00,VWS V14.00,2013-06-02 01:24:00,
2013-06-01 19:27:00,56.5,29.2,0.00,ESE,122,2.2,2.2,35,0.00,,---,0.00,VWS V14.00,2013-06-02 01:27:00,
2013-06-01 19:28:00,56.3,29.0,0.00,ESE,122,0.0,2.2,35,0.00,,---,0.00,VWS V14.00,2013-06-02 01:28:00,
2013-06-01 19:29:00,56.3,29.0,0.00,ESE,122,0.0,2.2,35,0.00,,---,0.00,VWS V14.00,2013-06-02 01:29:00,
2013-06-01 19:33:00,56.3,29.0,0.00,East,101,3.1,3.1,35,0.00,,---,0.00,VWS V14.00,2013-06-02 01:33:00,
2013-06-01 19:34:00,56.1,28.9,0.00,ESE,107,3.1,3.1,35,0.00,,---,0.00,VWS V14.00,2013-06-02 01:34:00,
2013-06-01 19:38:00,56.1,28.9,0.00,SE,125,0.0,2.7,35,0.00,,---,0.00,VWS V14.00,2013-06-02 01:38:00,
2013-06-01 19:39:00,55.9,28.7,0.00,South,169,4.0,4.0,35,0.00,,---,0.00,VWS V14.00,2013-06-02 01:39:00,
2013-06-01 19:43:00,55.8,28.5,0.00,SSE,154,0.0,0.0,35,0.00,,---,0.00,VWS V14.00,2013-06-02 01:43:00,
2013-06-01 19:44:00,55.8,28.5,0.00,East,87,3.1,3.1,35,0.00,,---,0.00,VWS V14.00,2013-06-02 01:44:00,
2013-06-01 19:48:00,55.6,29.1,0.00,South,187,0.0,0.0,36,0.00,,---,0.00,VWS V14.00,2013-06-02 01:48:00,
2013-06-01 19:49:00,55.4,28.9,0.00,South,185,0.0,0.0,36,0.00,,---,0.00,VWS V14.00,2013-06-02 01:49:00,
2013-06-01 19:50:00,55.4,28.9,0.00,South,185,2.7,2.7,36,0.00,,---,0.00,VWS V14.00,2013-06-02 01:50:00,
2013-06-01 19:53:00,55.2,28.8,0.00,WSW,250,0.0,0.0,36,0.00,,---,0.00,VWS V14.00,2013-06-02 01:53:00,
2013-06-01 19:54:00,55.0,28.6,0.00,South,179,0.0,0.0,36,0.00,,---,0.00,VWS V14.00,2013-06-02 01:54:00,
2013-06-01 19:55:00,55.0,28.6,0.00,SSW,201,0.0,0.0,36,0.00,,---,0.00,VWS V14.00,2013-06-02 01:55:00,
2013-06-01 19:58:00,54.7,28.3,0.00,South,172,0.0,0.0,36,0.00,,---,0.00,VWS V14.00,2013-06-02 01:58:00,
2013-06-01 19:59:00,54.7,28.3,0.00,South,172,0.0,0.0,36,0.00,,---,0.00,VWS V14.00,2013-06-02 01:59:00,
2013-06-01 20:00:00,54.7,28.3,0.00,South,172,0.0,0.0,36,0.00,,---,0.00,VWS V14.00,2013-06-02 02:00:00,
2013-06-01 20:04:00,54.5,28.1,0.00,SW,223,0.0,0.0,36,0.00,,---,0.00,VWS V14.00,2013-06-02 02:04:00,
2013-06-01 20:05:00,54.5,28.1,0.00,SW,223,0.0,0.0,36,0.00,,---,0.00,VWS V14.00,2013-06-02 02:05:00,
2013-06-01 20:09:00,54.1,27.8,0.00,WSW,241,0.0,0.0,36,0.00,,---,0.00,VWS V14.00,2013-06-02 02:09:00,
2013-06-01 20:10:00,54.1,27.8,0.00,WSW,240,0.0,0.0,36,0.00,,---,0.00,VWS V14.00,2013-06-02 02:10:00,
2013-06-01 20:14:00,54.0,27.6,0.00,WSW,239,0.0,0.0,36,0.00,,---,0.00,VWS V14.00,2013-06-02 02:14:00,
2013-06-01 20:15:00,53.8,27.5,0.00,WSW,239,0.0,0.0,36,0.00,,---,0.00,VWS V14.00,2013-06-02 02:15:00,
2013-06-01 20:19:00,53.6,27.3,0.00,WSW,239,0.0,0.0,36,0.00,,---,0.00,VWS V14.00,2013-06-02 02:19:00,
2013-06-01 20:20:00,53.4,27.1,0.00,WSW,239,0.0,0.0,36,0.00,,---,0.00,VWS V14.00,2013-06-02 02:20:00,
2013-06-01 20:21:00,53.4,27.1,0.00,WSW,239,0.0,0.0,36,0.00,,---,0.00,VWS V14.00,2013-06-02 02:21:00,
2013-06-01 20:24:00,53.2,27.0,0.00,WSW,239,0.0,0.0,36,0.00,,---,0.00,VWS V14.00,2013-06-02 02:24:00,
2013-06-01 20:25:00,53.2,27.0,0.00,WSW,239,0.0,0.0,36,0.00,,---,0.00,VWS V14.00,2013-06-02 02:25:00,
2013-06-01 20:26:00,53.1,26.8,0.00,WSW,239,0.0,0.0,36,0.00,,---,0.00,VWS V14.00,2013-06-02 02:26:00,
2013-06-01 20:29:00,52.9,26.7,0.00,WSW,239,0.0,0.0,36,0.00,,---,0.00,VWS V14.00,2013-06-02 02:29:00,
2013-06-01 20:30:00,52.9,26.7,0.00,WSW,239,0.0,0.0,36,0.00,,---,0.00,VWS V14.00,2013-06-02 02:30:00,
2013-06-01 20:31:00,52.9,26.7,0.00,WSW,239,0.0,0.0,36,0.00,,---,0.00,VWS V14.00,2013-06-02 02:31:00,
2013-06-01 20:34:00,52.5,26.4,0.00,WSW,239,0.0,0.0,36,0.00,,---,0.00,VWS V14.00,2013-06-02 02:34:00,
2013-06-01 20:35:00,52.5,26.4,0.00,WSW,239,0.0,0.0,36,0.00,,---,0.00,VWS V14.00,2013-06-02 02:35:00,
2013-06-01 20:36:00,52.3,26.2,0.00,WSW,239,0.0,0.0,36,0.00,,---,0.00,VWS V14.00,2013-06-02 02:36:00,
2013-06-01 20:39:00,52.2,26.0,0.00,WSW,239,0.0,0.0,36,0.00,,---,0.00,VWS V14.00,2013-06-02 02:39:00,
2013-06-01 20:40:00,52.2,26.0,0.00,WSW,240,0.0,0.0,36,0.00,,---,0.00,VWS V14.00,2013-06-02 02:40:00,
2013-06-01 20:41:00,52.0,25.9,0.00,WSW,239,0.0,0.0,36,0.00,,---,0.00,VWS V14.00,2013-06-02 02:41:00,
2013-06-01 20:42:00,52.0,25.9,0.00,WSW,240,0.0,0.0,36,0.00,,---,0.00,VWS V14.00,2013-06-02 02:42:00,
2013-06-01 20:44:00,51.8,25.7,0.00,WSW,239,0.0,0.0,36,0.00,,---,0.00,VWS V14.00,2013-06-02 02:44:00,
2013-06-01 20:45:00,51.8,25.7,0.00,WSW,239,0.0,0.0,36,0.00,,---,0.00,VWS V14.00,2013-06-02 02:45:00,
2013-06-01 20:46:00,51.6,26.2,0.00,SW,235,0.0,0.0,37,0.00,,---,0.00,VWS V14.00,2013-06-02 02:46:00,
2013-06-01 20:47:00,51.6,26.2,0.00,WSW,239,0.0,0.0,37,0.00,,---,0.00,VWS V14.00,2013-06-02 02:47:00,
2013-06-01 20:49:00,51.4,26.0,0.00,WSW,239,0.0,0.0,37,0.00,,---,0.00,VWS V14.00,2013-06-02 02:49:00,
2013-06-01 20:50:00,51.4,26.0,0.00,WSW,239,0.0,0.0,37,0.00,,---,0.00,VWS V14.00,2013-06-02 02:50:00,
2013-06-01 20:51:00,51.3,25.9,0.00,WSW,239,0.0,0.0,37,0.00,,---,0.00,VWS V14.00,2013-06-02 02:51:00,
2013-06-01 20:52:00,51.3,25.9,0.00,WSW,239,0.0,0.0,37,0.00,,---,0.00,VWS V14.00,2013-06-02 02:52:00,
2013-06-01 20:54:00,51.1,25.7,0.00,WSW,239,0.0,0.0,37,0.00,,---,0.00,VWS V14.00,2013-06-02 02:54:00,
2013-06-01 20:55:00,51.1,25.7,0.00,WSW,239,0.0,0.0,37,0.00,,---,0.00,VWS V14.00,2013-06-02 02:55:00,
2013-06-01 20:56:00,50.9,25.6,0.00,WSW,239,0.0,0.0,37,0.00,,---,0.00,VWS V14.00,2013-06-02 02:56:00,
2013-06-01 20:57:00,50.9,25.6,0.00,WSW,239,0.0,0.0,37,0.00,,---,0.00,VWS V14.00,2013-06-02 02:57:00,
2013-06-01 21:00:00,50.7,25.4,0.00,WSW,239,0.0,0.0,37,0.00,,---,0.00,VWS V14.00,2013-06-02 03:00:00,
2013-06-01 21:02:00,50.7,25.4,0.00,WSW,239,0.0,0.0,37,0.00,,---,0.00,VWS V14.00,2013-06-02 03:02:00,
2013-06-01 21:03:00,50.5,25.2,0.00,WSW,239,0.0,0.0,37,0.00,,---,0.00,VWS V14.00,2013-06-02 03:03:00,
2013-06-01 21:05:00,50.4,25.1,0.00,WSW,240,0.0,0.0,37,0.00,,---,0.00,VWS V14.00,2013-06-02 03:05:00,
2013-06-01 21:07:00,50.4,25.1,0.00,WSW,240,0.0,0.0,37,0.00,,---,0.00,VWS V14.00,2013-06-02 03:07:00,
2013-06-01 21:08:00,50.2,24.9,0.00,WSW,239,0.0,0.0,37,0.00,,---,0.00,VWS V14.00,2013-06-02 03:08:00,
2013-06-01 21:10:00,50.0,24.8,0.00,WSW,239,0.0,0.0,37,0.00,,---,0.00,VWS V14.00,2013-06-02 03:10:00,
2013-06-01 21:11:00,50.0,24.8,0.00,WSW,239,0.0,0.0,37,0.00,,---,0.00,VWS V14.00,2013-06-02 03:11:00,
2013-06-01 21:12:00,50.0,24.8,0.00,WSW,239,0.0,0.0,37,0.00,,---,0.00,VWS V14.00,2013-06-02 03:12:00,
2013-06-01 21:13:00,49.8,24.6,0.00,SW,235,0.0,0.0,37,0.00,,---,0.00,VWS V14.00,2013-06-02 03:13:00,
2013-06-01 21:15:00,49.6,24.5,0.00,WSW,239,0.0,0.0,37,0.00,,---,0.00,VWS V14.00,2013-06-02 03:15:00,
2013-06-01 21:16:00,49.6,24.5,0.00,WSW,240,0.0,0.0,37,0.00,,---,0.00,VWS V14.00,2013-06-02 03:16:00,
2013-06-01 21:17:00,49.6,24.5,0.00,WSW,239,0.0,0.0,37,0.00,,---,0.00,VWS V14.00,2013-06-02 03:17:00,
2013-06-01 21:18:00,49.6,24.5,0.00,SW,231,0.0,0.0,37,0.00,,---,0.00,VWS V14.00,2013-06-02 03:18:00,
2013-06-01 21:21:00,49.3,24.1,0.00,WSW,238,0.0,0.0,37,0.00,,---,0.00,VWS V14.00,2013-06-02 03:21:00,
2013-06-01 21:22:00,49.3,24.1,0.00,SE,124,0.0,0.0,37,0.00,,---,0.00,VWS V14.00,2013-06-02 03:22:00,
2013-06-01 21:23:00,49.1,24.0,0.00,SE,124,0.0,0.0,37,0.00,,---,0.00,VWS V14.00,2013-06-02 03:23:00,
2013-06-01 21:26:00,49.1,24.0,0.00,ENE,72,0.0,0.0,37,0.00,,---,0.00,VWS V14.00,2013-06-02 03:26:00,
2013-06-01 21:28:00,48.9,23.8,0.00,ENE,76,0.0,0.0,37,0.00,,---,0.00,VWS V14.00,2013-06-02 03:28:00,
2013-06-01 21:31:00,48.7,24.3,0.00,SE,126,0.0,0.0,38,0.00,,---,0.00,VWS V14.00,2013-06-02 03:31:00,
2013-06-01 21:33:00,48.6,24.1,0.00,East,81,3.1,3.6,38,0.00,,---,0.00,VWS V14.00,2013-06-02 03:33:00,
2013-06-01 21:36:00,48.4,24.0,0.00,ENE,70,0.0,0.0,38,0.00,,---,0.00,VWS V14.00,2013-06-02 03:36:00,
2013-06-01 21:38:00,48.4,24.0,0.00,ENE,71,0.0,0.0,38,0.00,,---,0.00,VWS V14.00,2013-06-02 03:38:00,
2013-06-01 21:41:00,48.2,23.8,0.00,SE,127,0.0,0.0,38,0.00,,---,0.00,VWS V14.00,2013-06-02 03:41:00,
2013-06-01 21:43:00,48.0,23.6,0.00,SE,124,0.0,0.0,38,0.00,,---,0.00,VWS V14.00,2013-06-02 03:43:00,
2013-06-01 21:46:00,47.8,23.5,0.00,ESE,104,2.2,3.1,38,0.00,,---,0.00,VWS V14.00,2013-06-02 03:46:00,
2013-06-01 21:48:00,47.7,23.3,0.00,ESE,122,2.2,3.1,38,0.00,,---,0.00,VWS V14.00,2013-06-02 03:48:00,
2013-06-01 21:51:00,47.7,23.3,0.00,SE,129,0.0,0.0,38,0.00,,---,0.00,VWS V14.00,2013-06-02 03:51:00,
2013-06-01 21:53:00,47.3,23.6,0.00,SE,132,0.0,0.0,39,0.00,,---,0.00,VWS V14.00,2013-06-02 03:53:00,
2013-06-01 21:56:00,47.3,23.6,0.00,East,83,3.1,3.1,39,0.00,,---,0.00,VWS V14.00,2013-06-02 03:56:00,
2013-06-01 21:57:00,47.3,23.6,0.00,ESE,104,3.6,3.6,39,0.00,,---,0.00,VWS V14.00,2013-06-02 03:57:00,
2013-06-01 21:58:00,47.1,23.5,0.00,ESE,107,0.0,0.0,39,0.00,,---,0.00,VWS V14.00,2013-06-02 03:58:00,
2013-06-01 22:01:00,46.9,23.3,0.00,SSE,167,0.0,3.1,39,0.00,,---,0.00,VWS V14.00,2013-06-02 04:01:00,
2013-06-01 22:06:00,46.6,23.0,0.00,SE,126,0.0,0.0,39,0.00,,---,0.00,VWS V14.00,2013-06-02 04:06:00,
2013-06-01 22:11:00,46.4,23.4,0.00,ESE,105,3.6,3.6,40,0.00,,---,0.00,VWS V14.00,2013-06-02 04:11:00,
2013-06-01 22:16:00,46.2,23.2,0.00,East,101,2.2,3.1,40,0.00,,---,0.00,VWS V14.00,2013-06-02 04:16:00,
2013-06-01 22:21:00,46.0,23.1,0.00,East,86,2.2,2.7,40,0.00,,---,0.00,VWS V14.00,2013-06-02 04:21:00,
2013-06-01 22:22:00,45.9,22.9,0.00,East,86,0.0,2.7,40,0.00,,---,0.00,VWS V14.00,2013-06-02 04:22:00,
2013-06-01 22:26:00,45.7,22.8,0.00,ESE,119,2.7,2.7,40,0.00,,---,0.00,VWS V14.00,2013-06-02 04:26:00,
2013-06-01 22:27:00,45.7,22.8,0.00,ESE,119,2.2,2.7,40,0.00,,---,0.00,VWS V14.00,2013-06-02 04:27:00,
2013-06-01 22:31:00,45.3,23.0,0.00,ESE,105,4.0,4.0,41,0.00,,---,0.00,VWS V14.00,2013-06-02 04:31:00,
2013-06-01 22:32:00,45.3,23.0,0.00,SSE,167,0.0,4.0,41,0.00,,---,0.00,VWS V14.00,2013-06-02 04:32:00,
2013-06-01 22:36:00,45.1,22.9,0.00,East,93,2.2,4.0,41,0.00,,---,0.00,VWS V14.00,2013-06-02 04:36:00,
2013-06-01 22:37:00,45.1,22.9,0.00,East,93,0.0,4.0,41,0.00,,---,0.00,VWS V14.00,2013-06-02 04:37:00,
2013-06-01 22:41:00,45.0,22.7,0.00,ESE,105,3.1,3.1,41,0.00,,---,0.00,VWS V14.00,2013-06-02 04:41:00,
2013-06-01 22:42:00,45.0,22.7,0.00,ESE,109,3.1,3.1,41,0.00,,---,0.00,VWS V14.00,2013-06-02 04:42:00,
2013-06-01 22:46:00,44.8,22.5,0.00,East,96,3.6,4.0,41,0.00,,---,0.00,VWS V14.00,2013-06-02 04:46:00,
2013-06-01 22:47:00,44.8,22.5,0.00,East,96,2.2,4.0,41,0.00,,---,0.00,VWS V14.00,2013-06-02 04:47:00,
2013-06-01 22:52:00,44.4,22.8,0.00,SE,124,3.6,3.6,42,0.00,,---,0.00,VWS V14.00,2013-06-02 04:52:00,
2013-06-01 22:57:00,44.2,22.6,0.00,ESE,107,0.0,0.0,42,0.00,,---,0.00,VWS V14.00,2013-06-02 04:57:00,
2013-06-01 23:02:00,44.1,22.5,0.00,SE,128,0.0,0.0,42,0.00,,---,0.00,VWS V14.00,2013-06-02 05:02:00,
2013-06-01 23:03:00,44.1,22.5,0.00,SE,134,0.0,0.0,42,0.00,,---,0.00,VWS V14.00,2013-06-02 05:03:00,
2013-06-01 23:07:00,43.9,22.3,0.00,SE,137,0.0,0.0,42,0.00,,---,0.00,VWS V14.00,2013-06-02 05:07:00,
2013-06-01 23:08:00,43.9,22.3,0.00,East,100,4.5,4.5,42,0.00,,---,0.00,VWS V14.00,2013-06-02 05:08:00,
2013-06-01 23:12:00,43.7,22.7,0.00,SSE,153,2.2,2.7,43,0.00,,---,0.00,VWS V14.00,2013-06-02 05:12:00,
2013-06-01 23:13:00,43.7,22.7,0.00,SSE,153,0.0,0.0,43,0.00,,---,0.00,VWS V14.00,2013-06-02 05:13:00,
2013-06-01 23:17:00,43.5,22.5,0.00,East,88,0.0,3.6,43,0.00,,---,0.00,VWS V14.00,2013-06-02 05:17:00,
2013-06-01 23:18:00,43.5,22.5,0.00,East,88,0.0,0.0,43,0.00,,---,0.00,VWS V14.00,2013-06-02 05:18:00,
2013-06-01 23:22:00,43.3,22.4,0.00,East,84,0.0,0.0,43,0.00,,---,0.00,VWS V14.00,2013-06-02 05:22:00,
2013-06-01 23:23:00,43.3,22.4,0.00,East,84,0.0,0.0,43,0.00,,---,0.00,VWS V14.00,2013-06-02 05:23:00,
2013-06-01 23:28:00,43.2,22.2,0.00,East,86,0.0,0.0,43,0.00,,---,0.00,VWS V14.00,2013-06-02 05:28:00,
2013-06-01 23:33:00,43.0,22.0,0.00,East,86,0.0,0.0,43,0.00,,---,0.00,VWS V14.00,2013-06-02 05:33:00,
2013-06-01 23:34:00,43.0,22.0,0.00,East,86,0.0,0.0,43,0.00,,---,0.00,VWS V14.00,2013-06-02 05:34:00,
2013-06-01 23:38:00,42.8,22.4,0.00,East,86,0.0,0.0,44,0.00,,---,0.00,VWS V14.00,2013-06-02 05:38:00,
2013-06-01 23:39:00,42.8,22.4,0.00,East,86,0.0,0.0,44,0.00,,---,0.00,VWS V14.00,2013-06-02 05:39:00,
2013-06-01 23:43:00,42.6,22.2,0.00,South,171,0.0,0.0,44,0.00,,---,0.00,VWS V14.00,2013-06-02 05:43:00,
2013-06-01 23:44:00,42.4,22.1,0.00,South,171,0.0,0.0,44,0.00,,---,0.00,VWS V14.00,2013-06-02 05:44:00,
2013-06-01 23:45:00,42.4,22.1,0.00,South,171,0.0,0.0,44,0.00,,---,0.00,VWS V14.00,2013-06-02 05:45:00,
2013-06-01 23:48:00,42.4,22.1,0.00,ESE,117,0.0,0.0,44,0.00,,---,0.00,VWS V14.00,2013-06-02 05:48:00,
2013-06-01 23:49:00,42.4,22.1,0.00,ESE,118,0.0,0.0,44,0.00,,---,0.00,VWS V14.00,2013-06-02 05:49:00,
2013-06-01 23:50:00,42.4,22.1,0.00,ESE,117,0.0,0.0,44,0.00,,---,0.00,VWS V14.00,2013-06-02 05:50:00,
2013-06-01 23:53:00,42.3,22.5,0.00,SE,135,2.2,2.2,45,0.00,,---,0.00,VWS V14.00,2013-06-02 05:53:00,
2013-06-01 23:54:00,42.3,22.5,0.00,SE,135,0.0,0.0,45,0.00,,---,0.00,VWS V14.00,2013-06-02 05:54:00,
2013-06-01 23:55:00,42.3,22.5,0.00,SE,135,0.0,0.0,45,0.00,,---,0.00,VWS V14.00,2013-06-02 05:55:00,
2013-06-01 23:58:00,42.3,22.5,0.00,SE,135,0.0,0.0,45,0.00,,---,0.00,VWS V14.00,2013-06-02 05:58:00,
2013-06-01 23:59:00,42.3,22.5,0.00,SE,134,0.0,0.0,45,0.00,,---,0.00,VWS V14.00,2013-06-02 05:59:00,